PWCRAW Weather Reports


Display with metric or nautical units.
time (UTC)temp
F
wind
direction
speed
MPH
gust
MPH
rain 1hr
in
rain 24hr
in
rain mn
in
humidity
%
barometer
mb
20260507113904 47 30 5.0 7.0 0.00 0.64 0.39 93 1011.9
20260507113804 47 30 5.0 7.0 0.00 0.64 0.39 93 1012.2
20260507113704 47 31 5.0 7.0 0.00 0.64 0.39 93 1012.1
20260507113604 47 33 5.0 7.0 0.00 0.64 0.39 93 1012.0
20260507113504 47 33 5.0 7.0 0.00 0.64 0.39 93 1012.0
20260507113404 47 35 4.0 7.0 0.00 0.64 0.39 93 1012.0
20260507113304 47 37 4.0 7.0 0.00 0.64 0.39 93 1011.9
20260507113204 47 39 4.0 7.0 0.00 0.64 0.39 93 1011.8
20260507113104 47 40 4.0 8.0 0.00 0.64 0.39 93 1011.9
20260507113005 47 41 4.0 8.0 0.00 0.64 0.39 93 1011.8
20260507112904 47 42 4.0 8.0 0.00 0.64 0.39 93 1011.7
20260507112804 47 43 4.0 8.0 0.00 0.64 0.39 93 1011.8
20260507112704 47 42 4.0 8.0 0.00 0.64 0.39 93 1012.0
20260507112404 47 41 4.0 8.0 0.01 0.64 0.39 93 1011.8
20260507112307 47 40 4.0 8.0 0.01 0.64 0.39 93 1011.8
20260507112204 47 38 4.0 8.0 0.01 0.64 0.39 93 1011.9
20260507112104 47 35 4.0 8.0 0.01 0.64 0.39 93 1011.8
20260507112011 47 33 4.0 6.0 0.01 0.64 0.39 93 1011.8
20260507111912 47 33 4.0 7.0 0.01 0.64 0.39 93 1011.9
20260507111905 47 34 4.0 7.0 0.01 0.64 0.39 93 1011.9
20260507111712 47 33 4.0 7.0 0.01 0.64 0.39 93 1011.8
20260507111604 47 32 4.0 7.0 0.01 0.64 0.39 93 1012.1
20260507111404 47 27 4.0 7.0 0.01 0.64 0.39 93 1011.8
20260507111304 47 25 4.0 7.0 0.01 0.64 0.39 93 1011.9
20260507111204 47 24 3.0 7.0 0.01 0.64 0.39 93 1012.0
20260507111104 47 26 3.0 7.0 0.01 0.64 0.39 93 1011.9
20260507111004 47 28 3.0 7.0 0.01 0.64 0.39 93 1011.7
20260507110904 47 24 3.0 4.0 0.01 0.64 0.39 93 1011.9
20260507110804 47 20 3.0 4.0 0.01 0.64 0.39 93 1011.6
20260507110711 47 15 3.0 4.0 0.01 0.64 0.39 94 1011.8
20260507110704 47 14 3.0 3.0 0.01 0.64 0.39 94 1011.8
20260507110604 48 14 3.0 3.0 0.01 0.64 0.39 94 1011.7
20260507110404 47 14 3.0 3.0 0.01 0.64 0.39 94 1011.7
20260507110304 47 52 6.0 7.0 0.01 0.64 0.39 94 1011.7
20260507110205 47 52 6.0 7.0 0.01 0.64 0.39 93 1011.7
20260507110104 47 52 6.0 7.0 0.01 0.64 0.39 93 1011.8
20260507110005 47 52 6.0 7.0 0.01 0.64 0.39 93 1011.7
20260507105904 47 52 6.0 7.0 0.01 0.64 0.39 94 1011.7
20260507105804 47 52 6.0 7.0 0.01 0.64 0.39 94 1011.7
20260507105704 47 52 6.0 7.0 0.01 0.64 0.39 94 1011.6
20260507105604 47 52 6.0 7.0 0.01 0.64 0.39 94 1011.7
20260507105505 47 52 6.0 7.0 0.01 0.64 0.39 94 1011.7
20260507105404 47 52 6.0 7.0 0.01 0.63 0.39 94 1011.7
20260507105204 47 52 6.0 7.0 0.01 0.63 0.39 94 1011.7
20260507105104 47 52 6.0 7.0 0.01 0.63 0.39 94 1011.7
20260507105005 47 52 6.0 7.0 0.01 0.63 0.39 94 1011.7
20260507104904 47 52 6.0 7.0 0.01 0.63 0.39 94 1011.7
20260507104804 47 52 6.0 7.0 0.01 0.63 0.39 94 1011.4
20260507104504 47 52 6.0 7.0 0.01 0.63 0.39 94 1011.7
20260507104404 47 51 6.0 7.0 0.01 0.63 0.39 94 1011.6
20260507104104 47 45 5.0 9.0 0.02 0.63 0.39 94 1011.4
20260507104005 47 42 5.0 9.0 0.02 0.63 0.39 94 1011.6
20260507103904 47 40 5.0 9.0 0.02 0.63 0.39 94 1011.6
20260507103804 47 37 5.0 9.0 0.02 0.63 0.39 94 1011.5
20260507103704 47 35 5.0 9.0 0.02 0.63 0.39 94 1011.5
20260507103604 47 33 5.0 9.0 0.02 0.63 0.39 94 1011.6
20260507103504 47 31 5.0 9.0 0.02 0.63 0.39 94 1011.5
20260507103404 47 30 6.0 9.0 0.02 0.63 0.39 94 1011.6
20260507103304 47 33 6.0 9.0 0.02 0.63 0.39 94 1011.6
20260507103204 47 36 6.0 9.0 0.02 0.63 0.39 94 1011.6
20260507103004 47 38 6.0 9.0 0.02 0.63 0.39 94 1011.5
20260507102904 47 39 6.0 9.0 0.02 0.63 0.39 94 1011.4
20260507102804 47 41 6.0 9.0 0.02 0.63 0.39 94 1011.5
20260507102704 47 43 6.0 9.0 0.02 0.63 0.39 94 1011.5
20260507102604 47 44 6.0 9.0 0.02 0.63 0.39 94 1011.7
20260507102505 46 45 5.0 9.0 0.02 0.63 0.39 94 1011.4
20260507102404 46 47 5.0 9.0 0.02 0.63 0.39 94 1011.4
20260507102311 46 46 5.0 9.0 0.02 0.63 0.39 94 1011.4
20260507102306 46 45 5.0 9.0 0.02 0.63 0.39 94 1011.4
20260507102212 46 46 5.0 9.0 0.02 0.63 0.39 94 1011.5
20260507102204 46 45 5.0 9.0 0.02 0.63 0.39 94 1011.5
20260507102111 46 45 6.0 10.0 0.02 0.63 0.39 94 1011.5
20260507101804 46 48 6.0 10.0 0.02 0.63 0.39 94 1011.3
20260507101704 46 47 6.0 10.0 0.02 0.63 0.39 94 1011.3
20260507101604 46 47 5.0 10.0 0.02 0.63 0.39 94 1011.5
20260507101511 46 46 5.0 10.0 0.02 0.63 0.39 94 1011.1
20260507101404 46 46 6.0 10.0 0.02 0.63 0.39 94 1011.4
20260507101204 46 44 6.0 11.0 0.02 0.63 0.39 94 1011.3
20260507101104 46 43 6.0 11.0 0.02 0.63 0.39 94 1011.2
20260507101004 46 43 6.0 11.0 0.02 0.63 0.39 94 1011.2
20260507100904 47 42 7.0 11.0 0.02 0.63 0.39 94 1011.3
20260507100804 47 40 7.0 11.0 0.02 0.63 0.39 94 1011.3
20260507100704 47 40 7.0 11.0 0.02 0.63 0.39 94 1011.4
20260507100504 46 43 7.0 13.0 0.02 0.63 0.39 94 1011.3
20260507100404 47 43 8.0 13.0 0.02 0.63 0.38 94 1011.1
20260507100304 47 43 8.0 13.0 0.02 0.63 0.38 94 1011.3
20260507100204 47 44 7.0 13.0 0.02 0.63 0.38 94 1011.2
20260507100006 47 44 8.0 13.0 0.02 0.63 0.38 94 1011.2
20260507095904 47 43 7.0 13.0 0.02 0.63 0.38 94 1011.1
20260507095804 47 44 7.0 13.0 0.02 0.63 0.38 94 1011.2
20260507095604 47 42 8.0 13.0 0.02 0.63 0.38 94 1011.0
20260507095504 47 40 8.0 13.0 0.02 0.63 0.38 94 1010.9
20260507095404 47 38 8.0 13.0 0.02 0.63 0.38 94 1011.3
20260507095306 47 36 8.0 13.0 0.02 0.63 0.38 94 1011.0
20260507095204 47 32 8.0 13.0 0.02 0.62 0.38 94 1011.0
20260507095111 47 27 8.0 13.0 0.02 0.62 0.38 94 1011.1
20260507095104 47 26 8.0 13.0 0.02 0.62 0.38 94 1011.1
20260507095011 47 22 8.0 13.0 0.02 0.62 0.38 94 1011.1
20260507095004 47 22 8.0 13.0 0.02 0.62 0.38 94 1011.1
20260507094704 47 10 8.0 13.0 0.02 0.62 0.38 94 1011.1
20260507094611 47 7 8.0 11.0 0.02 0.62 0.38 94 1010.9
20260507094604 47 6 8.0 11.0 0.02 0.62 0.38 94 1010.9
20260507094304 47 360 8.0 13.0 0.02 0.62 0.38 95 1011.1
20260507094204 47 359 8.0 13.0 0.02 0.62 0.38 95 1011.0
20260507094104 47 360 8.0 13.0 0.02 0.62 0.37 95 1010.9
20260507094005 47 1 8.0 13.0 0.02 0.62 0.37 95 1010.9
20260507093904 47 360 8.0 13.0 0.02 0.62 0.37 95 1010.9
20260507093804 48 360 8.0 13.0 0.02 0.62 0.37 94 1011.2
20260507093712 48 359 8.0 13.0 0.02 0.62 0.37 95 1011.2
20260507093604 48 359 8.0 13.0 0.02 0.62 0.37 95 1010.9
20260507093511 48 359 7.0 13.0 0.02 0.62 0.37 95 1011.1
20260507093411 48 357 7.0 13.0 0.02 0.62 0.37 95 1011.0
20260507093404 48 358 7.0 13.0 0.02 0.62 0.37 95 1011.0
20260507093211 48 355 7.0 13.0 0.02 0.62 0.37 95 1010.9
20260507093104 48 356 7.0 13.0 0.02 0.62 0.37 95 1010.7
20260507093011 48 356 7.0 13.0 0.02 0.62 0.37 95 1010.9
20260507092704 48 360 8.0 13.0 0.02 0.62 0.37 95 1010.8
20260507092604 48 1 8.0 13.0 0.02 0.62 0.37 95 1010.8
20260507092504 48 360 8.0 13.0 0.02 0.61 0.37 95 1010.7
20260507092411 48 1 8.0 13.0 0.02 0.61 0.37 95 1010.9
20260507092404 48 360 8.0 13.0 0.02 0.61 0.37 95 1010.9
20260507092307 48 2 8.0 13.0 0.02 0.61 0.37 95 1010.6
20260507092104 48 360 8.0 13.0 0.02 0.61 0.37 95 1010.8
20260507092004 48 360 7.0 13.0 0.02 0.61 0.37 95 1010.8
20260507091904 48 359 7.0 13.0 0.02 0.61 0.37 95 1010.7
20260507091804 48 358 7.0 13.0 0.02 0.61 0.37 95 1010.6
20260507091704 48 356 7.0 11.0 0.02 0.61 0.37 95 1010.8
20260507091604 48 355 7.0 11.0 0.02 0.61 0.37 95 1010.6
20260507091504 48 355 7.0 11.0 0.02 0.61 0.37 95 1010.6
20260507091304 48 350 7.0 10.0 0.03 0.61 0.37 95 1010.6
20260507091204 48 349 7.0 10.0 0.03 0.61 0.37 95 1010.5
20260507091104 48 347 7.0 10.0 0.03 0.61 0.37 95 1010.4
20260507091004 48 345 7.0 10.0 0.03 0.61 0.37 95 1010.4
20260507090904 48 344 7.0 10.0 0.03 0.61 0.37 95 1010.5
20260507090804 48 343 7.0 10.0 0.03 0.61 0.37 95 1010.4
20260507090604 47 343 7.0 10.0 0.03 0.61 0.37 95 1010.5
20260507090504 47 342 7.0 10.0 0.03 0.61 0.37 95 1010.5
20260507090304 47 342 7.0 10.0 0.03 0.61 0.37 95 1010.5
20260507090204 47 343 6.0 10.0 0.03 0.61 0.37 95 1010.4
20260507090104 47 343 6.0 10.0 0.03 0.61 0.37 95 1010.5
20260507090005 47 343 6.0 8.0 0.03 0.61 0.37 95 1010.5
20260507085804 47 341 6.0 10.0 0.03 0.61 0.37 95 1010.5
20260507085704 47 342 7.0 10.0 0.03 0.61 0.37 95 1010.4
20260507085604 47 341 7.0 10.0 0.03 0.61 0.37 95 1010.2
20260507085504 47 338 7.0 10.0 0.03 0.61 0.37 95 1010.2
20260507085404 47 336 7.0 10.0 0.03 0.61 0.36 95 1010.2
20260507085306 47 335 7.0 10.0 0.03 0.61 0.36 95 1010.2
20260507085204 47 335 7.0 10.0 0.03 0.61 0.36 95 1010.1
20260507085104 47 335 7.0 10.0 0.03 0.61 0.36 95 1010.4
20260507085004 47 336 7.0 10.0 0.03 0.61 0.36 95 1010.5
20260507084704 47 337 6.0 10.0 0.04 0.61 0.36 95 1010.2
20260507084604 47 338 6.0 10.0 0.04 0.61 0.36 95 1010.4
20260507084505 47 341 7.0 10.0 0.04 0.61 0.36 95 1010.2
20260507084404 47 345 7.0 10.0 0.04 0.61 0.36 95 1010.2
20260507084304 47 347 7.0 10.0 0.04 0.61 0.36 95 1010.4
20260507084204 47 349 7.0 10.0 0.04 0.61 0.36 95 1010.1
20260507084104 47 349 7.0 10.0 0.04 0.60 0.36 95 1010.1
20260507084004 47 350 7.0 10.0 0.04 0.60 0.36 95 1010.1
20260507083904 47 351 7.0 10.0 0.04 0.60 0.36 95 1010.2
20260507083804 47 350 7.0 10.0 0.04 0.60 0.36 95 1010.2
20260507083704 47 349 6.0 10.0 0.04 0.60 0.36 95 1010.1
20260507083604 47 348 6.0 10.0 0.04 0.60 0.36 95 1010.1
20260507083511 47 347 6.0 10.0 0.04 0.60 0.36 95 1010.1
20260507083504 47 346 6.0 10.0 0.04 0.60 0.36 95 1010.1
20260507083404 47 345 6.0 9.0 0.04 0.60 0.36 95 1010.1
20260507083204 47 341 6.0 9.0 0.04 0.60 0.35 95 1010.0
20260507083104 47 342 6.0 9.0 0.04 0.60 0.35 95 1010.2
20260507083005 47 341 6.0 9.0 0.04 0.60 0.35 95 1010.2
20260507082912 47 340 6.0 9.0 0.04 0.60 0.35 95 1010.2
20260507082804 47 340 6.0 9.0 0.04 0.60 0.35 95 1010.0
20260507082604 47 341 7.0 9.0 0.04 0.59 0.35 95 1010.1
20260507082504 47 342 7.0 10.0 0.04 0.59 0.35 95 1010.0
20260507082204 47 343 7.0 10.0 0.04 0.59 0.35 95 1009.9
20260507082104 47 343 7.0 10.0 0.04 0.59 0.35 95 1009.9
20260507082004 47 345 7.0 10.0 0.04 0.59 0.35 95 1009.9
20260507081904 47 346 7.0 10.0 0.04 0.59 0.35 95 1009.9
20260507081804 47 347 7.0 10.0 0.04 0.59 0.35 95 1009.8
20260507081704 47 348 7.0 10.0 0.04 0.59 0.35 95 1009.8
20260507081604 47 348 7.0 10.0 0.04 0.59 0.35 95 1009.9
20260507081504 47 348 7.0 10.0 0.04 0.59 0.35 95 1009.8
20260507081404 47 349 7.0 10.0 0.05 0.59 0.35 95 1009.8
20260507081304 47 351 7.0 10.0 0.04 0.59 0.34 95 1009.9
20260507081204 47 352 7.0 10.0 0.04 0.59 0.34 95 1009.7
20260507081105 47 353 7.0 10.0 0.05 0.59 0.34 95 1009.7
20260507081004 47 352 7.0 10.0 0.05 0.59 0.34 95 1009.8
20260507080804 47 355 7.0 10.0 0.05 0.58 0.34 95 1009.7
20260507080704 47 356 7.0 10.0 0.05 0.58 0.34 95 1009.7
20260507080604 47 357 7.0 10.0 0.05 0.58 0.34 95 1009.8
20260507080504 47 357 7.0 9.0 0.05 0.58 0.34 95 1009.7
20260507080404 47 357 7.0 9.0 0.05 0.58 0.34 95 1009.8
20260507080304 47 357 7.0 10.0 0.06 0.58 0.34 95 1009.5
20260507080204 47 358 7.0 10.0 0.05 0.58 0.33 95 1009.7
20260507080105 47 357 7.0 10.0 0.06 0.58 0.33 95 1009.8
20260507075804 47 355 7.0 10.0 0.06 0.58 0.33 95 1009.8
20260507075704 47 356 7.0 10.0 0.06 0.58 0.33 95 1009.6
20260507075604 47 355 7.0 10.0 0.06 0.58 0.33 95 1009.6
20260507075513 47 355 7.0 10.0 0.06 0.58 0.33 95 1009.7
20260507075504 47 355 7.0 10.0 0.06 0.58 0.33 95 1009.7
20260507075404 47 356 7.0 10.0 0.06 0.57 0.33 95 1009.6
20260507075311 47 357 6.0 10.0 0.06 0.57 0.33 95 1009.5
20260507075204 47 356 6.0 9.0 0.06 0.57 0.33 95 1009.5
20260507075004 47 356 6.0 9.0 0.06 0.57 0.33 95 1009.5
20260507074905 47 355 6.0 9.0 0.07 0.57 0.33 95 1009.5
20260507074804 47 354 6.0 8.0 0.06 0.57 0.33 95 1009.7
20260507074704 47 354 6.0 8.0 0.06 0.57 0.33 95 1009.5
20260507074604 47 355 6.0 8.0 0.07 0.57 0.33 95 1009.5
20260507074504 47 354 6.0 8.0 0.07 0.57 0.33 95 1009.6
20260507074404 47 352 6.0 8.0 0.07 0.57 0.33 95 1009.3
20260507074306 47 349 6.0 8.0 0.07 0.57 0.33 95 1009.3
20260507074204 47 348 6.0 8.0 0.07 0.57 0.32 95 1009.5
20260507074104 47 347 6.0 8.0 0.07 0.57 0.32 95 1009.5
20260507074004 47 346 6.0 8.0 0.07 0.57 0.32 95 1009.4
20260507073904 47 346 6.0 7.0 0.08 0.57 0.32 95 1009.3
20260507073804 47 346 6.0 7.0 0.08 0.57 0.32 96 1009.3
20260507073604 47 347 6.0 9.0 0.07 0.56 0.32 95 1009.4
20260507073504 47 347 6.0 9.0 0.07 0.56 0.32 95 1009.4
20260507073404 47 346 6.0 9.0 0.07 0.56 0.32 95 1009.4
20260507073305 47 346 6.0 9.0 0.07 0.56 0.32 95 1009.2
20260507073204 47 346 6.0 9.0 0.07 0.56 0.32 96 1009.4
20260507073104 47 347 6.0 9.0 0.08 0.56 0.32 96 1009.3
20260507073004 47 348 6.0 9.0 0.08 0.56 0.32 96 1009.3
20260507072904 47 347 6.0 9.0 0.08 0.56 0.32 95 1009.4
20260507072804 47 347 6.0 9.0 0.08 0.56 0.32 96 1009.4
20260507072705 47 347 6.0 9.0 0.07 0.56 0.31 95 1009.3
20260507072604 47 346 6.0 9.0 0.07 0.56 0.31 95 1009.3
20260507072504 47 347 6.0 9.0 0.07 0.56 0.31 95 1009.5
20260507072404 47 349 5.0 8.0 0.07 0.56 0.31 95 1009.3
20260507072312 47 350 5.0 8.0 0.07 0.56 0.31 95 1009.3
20260507072306 47 350 5.0 8.0 0.07 0.56 0.31 95 1009.3
20260507072204 47 352 5.0 8.0 0.07 0.56 0.31 95 1009.4
20260507072004 47 354 5.0 8.0 0.07 0.55 0.31 96 1009.3
20260507071904 47 355 5.0 8.0 0.07 0.55 0.31 96 1009.2
20260507071704 47 357 5.0 7.0 0.07 0.55 0.30 96 1009.3
20260507071604 47 357 5.0 7.0 0.07 0.55 0.30 96 1009.2
20260507071404 47 359 6.0 7.0 0.07 0.54 0.30 96 1009.2
20260507071304 47 358 6.0 7.0 0.07 0.54 0.30 96 1009.3
20260507071204 47 357 6.0 7.0 0.07 0.54 0.30 96 1009.1
20260507071104 47 354 4.0 7.0 0.07 0.54 0.30 96 1009.4
20260507071004 47 353 4.0 6.0 0.07 0.54 0.30 96 1009.1
20260507070904 47 353 4.0 6.0 0.06 0.54 0.29 96 1009.1
20260507070805 47 353 4.0 6.0 0.06 0.54 0.29 96 1009.3
20260507070704 47 353 4.0 6.0 0.06 0.54 0.29 95 1009.0
20260507070604 47 353 4.0 6.0 0.06 0.53 0.29 96 1009.3
20260507070504 47 353 4.0 6.0 0.06 0.53 0.29 96 1009.1
20260507070404 47 353 4.0 6.0 0.06 0.53 0.29 96 1009.3
20260507070304 47 353 4.0 6.0 0.06 0.53 0.28 96 1009.1
20260507070104 47 354 4.0 6.0 0.06 0.52 0.28 96 1009.2
20260507070010 47 355 4.0 6.0 0.06 0.52 0.28 96 1009.0
20260507065804 47 357 4.0 6.0 0.06 0.52 0.28 96 1009.0
20260507065704 47 358 4.0 6.0 0.06 0.52 0.27 96 1009.2
20260507065604 47 359 4.0 6.0 0.06 0.52 0.27 96 1009.2
20260507065504 47 359 4.0 6.0 0.06 0.52 0.27 96 1009.0
20260507065306 47 360 4.0 6.0 0.06 0.51 0.27 96 1008.8
20260507065204 47 360 4.0 6.0 0.06 0.51 0.27 96 1009.1
20260507065104 47 359 4.0 6.0 0.06 0.51 0.27 96 1009.1
20260507065004 47 358 4.0 6.0 0.06 0.51 0.27 96 1009.0
20260507064804 47 357 4.0 6.0 0.06 0.51 0.26 96 1009.1
20260507064704 47 360 4.0 6.0 0.06 0.51 0.26 96 1009.1
20260507064604 47 2 4.0 6.0 0.06 0.50 0.26 96 1008.9
20260507064512 47 5 4.0 4.0 0.06 0.50 0.26 96 1008.9
20260507064504 47 6 4.0 4.0 0.06 0.50 0.26 96 1008.9
20260507064405 47 10 4.0 4.0 0.06 0.50 0.26 96 1009.0
20260507064211 47 17 4.0 4.0 0.05 0.50 0.25 96 1009.2
20260507064205 47 18 4.0 4.0 0.05 0.50 0.25 96 1009.2
20260507064104 47 22 4.0 4.0 0.06 0.50 0.25 96 1008.9
20260507064011 47 25 4.0 4.0 0.05 0.49 0.25 96 1009.0
20260507063904 47 29 4.0 4.0 0.05 0.49 0.24 96 1008.9
20260507063704 47 26 4.0 4.0 0.05 0.49 0.24 96 1008.8
20260507063604 47 23 4.0 4.0 0.05 0.49 0.24 96 1009.0
20260507063505 47 20 3.0 4.0 0.05 0.49 0.24 96 1008.9
20260507063404 47 16 3.0 4.0 0.05 0.49 0.24 96 1008.8
20260507063304 47 14 3.0 4.0 0.05 0.49 0.24 96 1008.8
20260507063204 47 12 3.0 4.0 0.06 0.49 0.24 96 1008.7
20260507063104 47 6 2.0 4.0 0.05 0.48 0.24 96 1008.9
20260507063004 47 359 2.0 4.0 0.06 0.48 0.24 96 1008.9
20260507062904 47 348 2.0 4.0 0.06 0.48 0.24 96 1008.8
20260507062804 47 337 1.0 4.0 0.06 0.48 0.24 96 1008.8
20260507062704 47 327 1.0 4.0 0.06 0.48 0.24 96 1008.7
20260507062604 47 308 2.0 4.0 0.06 0.48 0.24 96 1008.7
20260507062504 47 273 2.0 6.0 0.06 0.48 0.24 96 1008.9
20260507062404 47 253 1.0 6.0 0.06 0.48 0.24 96 1008.9
20260507062306 47 242 2.0 6.0 0.06 0.48 0.24 96 1008.8
20260507062204 47 239 2.0 6.0 0.06 0.48 0.24 96 1008.9
20260507062104 47 236 2.0 7.0 0.06 0.48 0.24 96 1008.8
20260507062012 47 232 3.0 7.0 0.06 0.48 0.24 96 1008.8
20260507061904 47 230 3.0 8.0 0.06 0.48 0.24 96 1008.8
20260507061704 47 232 4.0 8.0 0.06 0.48 0.24 96 1008.7
20260507061604 47 232 4.0 8.0 0.06 0.48 0.23 96 1008.6
20260507061504 47 232 4.0 8.0 0.06 0.48 0.23 96 1008.6
20260507061404 47 233 5.0 8.0 0.06 0.48 0.23 96 1008.6
20260507061304 47 231 5.0 11.0 0.06 0.48 0.23 96 1008.7
20260507061204 47 230 6.0 11.0 0.06 0.47 0.23 96 1008.5
20260507061104 47 229 6.0 11.0 0.06 0.47 0.23 96 1008.7
20260507061011 47 228 6.0 11.0 0.06 0.47 0.23 96 1008.6
20260507061004 47 228 6.0 11.0 0.06 0.47 0.23 96 1008.6
20260507060904 47 228 6.0 11.0 0.06 0.47 0.23 96 1008.8
20260507060704 46 229 6.0 11.0 0.06 0.47 0.23 96 1008.5
20260507060604 46 230 6.0 11.0 0.06 0.47 0.22 96 1008.4
20260507060505 46 231 6.0 11.0 0.07 0.47 0.22 96 1008.5
20260507060404 46 233 6.0 11.0 0.07 0.47 0.22 96 1008.5
20260507060304 46 238 5.0 10.0 0.07 0.47 0.22 96 1008.4
20260507060212 46 241 5.0 9.0 0.07 0.46 0.22 96 1008.5
20260507060204 46 242 5.0 9.0 0.07 0.46 0.22 96 1008.5
20260507060104 46 246 5.0 9.0 0.07 0.46 0.22 96 1008.6
20260507055904 46 251 5.0 9.0 0.07 0.46 0.22 96 1008.6
20260507055804 46 253 5.0 9.0 0.07 0.46 0.22 96 1008.5
20260507055704 46 255 4.0 9.0 0.07 0.46 0.22 96 1008.7
20260507055604 46 261 4.0 9.0 0.07 0.46 0.21 96 1008.4
20260507055504 46 267 4.0 8.0 0.07 0.46 0.21 96 1008.5
20260507055404 46 263 4.0 8.0 0.07 0.46 0.21 96 1008.6
20260507055306 46 265 4.0 8.0 0.07 0.45 0.21 96 1008.7
20260507055211 46 266 4.0 8.0 0.07 0.45 0.21 96 1008.6
20260507055204 46 266 4.0 7.0 0.07 0.45 0.21 96 1008.6
20260507055104 46 270 4.0 7.0 0.08 0.45 0.21 96 1008.5
20260507054904 46 281 3.0 7.0 0.07 0.45 0.20 96 1008.7
20260507054804 46 284 3.0 7.0 0.08 0.45 0.20 96 1008.5
20260507054711 46 291 4.0 8.0 0.08 0.45 0.20 96 1008.4
20260507054704 46 292 4.0 8.0 0.08 0.45 0.20 96 1008.4
20260507054604 46 293 4.0 8.0 0.08 0.45 0.20 96 1008.5
20260507054404 46 304 4.0 8.0 0.08 0.44 0.20 96 1008.5
20260507054304 46 309 4.0 8.0 0.08 0.44 0.20 96 1008.5
20260507054204 46 313 4.0 8.0 0.08 0.44 0.20 96 1008.6
20260507054104 46 317 4.0 8.0 0.08 0.44 0.20 96 1008.5
20260507054004 46 321 5.0 8.0 0.08 0.44 0.20 96 1008.6
20260507053904 46 325 5.0 8.0 0.08 0.44 0.20 96 1008.5
20260507053804 46 330 5.0 8.0 0.08 0.44 0.20 96 1008.5
20260507053704 46 335 5.0 10.0 0.08 0.44 0.20 96 1008.7
20260507053604 46 338 5.0 10.0 0.08 0.44 0.19 96 1008.4
20260507053504 46 341 5.0 10.0 0.08 0.44 0.19 96 1008.6
20260507053304 46 348 6.0 10.0 0.08 0.44 0.19 96 1008.5
20260507053211 46 347 6.0 10.0 0.08 0.43 0.19 96 1008.7
20260507053204 46 347 6.0 10.0 0.08 0.43 0.19 96 1008.7
20260507053104 46 348 6.0 10.0 0.08 0.43 0.19 96 1008.4
20260507052904 46 352 6.0 10.0 0.07 0.43 0.19 96 1008.6
20260507052804 46 353 6.0 10.0 0.07 0.43 0.19 96 1008.4
20260507052704 46 352 6.0 10.0 0.08 0.43 0.19 96 1008.3
20260507052604 46 352 6.0 10.0 0.08 0.43 0.19 96 1008.5
20260507052505 46 353 6.0 10.0 0.08 0.43 0.19 96 1008.3
20260507052404 46 351 6.0 10.0 0.07 0.43 0.18 96 1008.4
20260507052306 46 351 6.0 10.0 0.07 0.43 0.18 96 1008.3
20260507052204 46 352 6.0 10.0 0.07 0.43 0.18 96 1008.4
20260507052105 46 354 6.0 10.0 0.07 0.43 0.18 96 1008.3
20260507052004 46 352 6.0 10.0 0.07 0.42 0.18 96 1008.4
20260507051812 46 350 6.0 10.0 0.07 0.42 0.18 96 1008.2
20260507051704 46 352 7.0 10.0 0.07 0.42 0.17 96 1008.3
20260507051504 46 352 7.0 11.0 0.07 0.41 0.17 96 1008.4
20260507051404 46 353 7.0 11.0 0.07 0.41 0.17 96 1008.2
20260507051204 46 353 7.0 11.0 0.07 0.41 0.17 96 1008.4
20260507051104 46 353 7.0 11.0 0.07 0.41 0.17 96 1008.2
20260507051004 46 356 7.0 11.0 0.07 0.41 0.17 96 1008.2
20260507050904 46 356 7.0 11.0 0.07 0.41 0.17 96 1008.3
20260507050804 46 354 7.0 11.0 0.07 0.41 0.17 96 1008.2
20260507050704 46 353 7.0 11.0 0.07 0.41 0.17 96 1008.1
20260507050604 46 351 7.0 11.0 0.07 0.41 0.16 96 1008.2
20260507050504 46 351 7.0 10.0 0.06 0.40 0.16 96 1008.3
20260507050404 46 352 7.0 10.0 0.06 0.40 0.16 96 1008.2
20260507050304 46 351 7.0 10.0 0.06 0.40 0.15 96 1008.1
20260507050204 46 351 7.0 10.0 0.06 0.39 0.15 96 1008.1
20260507050104 46 350 7.0 13.0 0.06 0.39 0.15 96 1008.1
20260507050006 46 349 8.0 13.0 0.06 0.39 0.15 96 1008.1
20260507045904 46 350 8.0 13.0 0.06 0.39 0.15 96 1008.1
20260507045804 46 350 8.0 13.0 0.05 0.39 0.15 96 1007.8
20260507045711 46 351 8.0 13.0 0.05 0.39 0.14 96 1007.9
20260507045604 46 353 8.0 13.0 0.05 0.38 0.14 96 1008.1
20260507045404 46 352 8.0 13.0 0.05 0.38 0.14 96 1008.1
20260507045306 46 350 8.0 13.0 0.04 0.38 0.13 96 1007.8
20260507045204 46 349 8.0 13.0 0.04 0.38 0.13 96 1008.1
20260507045104 46 349 7.0 13.0 0.04 0.37 0.13 96 1008.1
20260507045004 46 350 7.0 13.0 0.04 0.37 0.13 96 1008.1
20260507044904 46 349 7.0 13.0 0.04 0.37 0.13 96 1008.1
20260507044804 46 348 7.0 13.0 0.04 0.37 0.13 96 1008.1
20260507044604 46 345 6.0 13.0 0.03 0.37 0.12 96 1007.9
20260507044505 46 344 6.0 13.0 0.03 0.37 0.12 96 1007.8
20260507044404 46 344 6.0 11.0 0.03 0.36 0.12 96 1007.8
20260507044304 46 344 5.0 9.0 0.03 0.36 0.12 96 1008.1
20260507044204 46 345 6.0 9.0 0.03 0.36 0.12 96 1007.8
20260507044104 46 346 6.0 10.0 0.03 0.36 0.12 96 1007.9
20260507044004 46 347 6.0 10.0 0.02 0.36 0.12 96 1007.9
20260507043904 46 346 6.0 10.0 0.02 0.36 0.11 96 1007.7
20260507043804 46 345 5.0 10.0 0.02 0.36 0.11 96 1007.9
20260507043704 46 344 5.0 10.0 0.02 0.36 0.11 96 1007.9
20260507043604 46 344 5.0 10.0 0.02 0.36 0.11 96 1007.9
20260507043505 46 343 5.0 10.0 0.02 0.35 0.11 96 1007.8
20260507043404 46 342 5.0 10.0 0.02 0.35 0.11 96 1007.8
20260507043304 46 341 5.0 10.0 0.02 0.35 0.11 96 1007.7
20260507043204 46 340 5.0 10.0 0.02 0.35 0.11 96 1007.9
20260507043004 46 337 6.0 11.0 0.02 0.35 0.11 96 1007.8
20260507042904 46 339 6.0 11.0 0.02 0.35 0.11 96 1007.7
20260507042804 46 341 7.0 11.0 0.02 0.35 0.11 96 1007.7
20260507042604 46 342 7.0 11.0 0.02 0.35 0.11 96 1007.6
20260507042505 46 343 7.0 11.0 0.02 0.35 0.11 96 1007.7
20260507042404 46 343 7.0 11.0 0.02 0.35 0.11 96 1007.7
20260507042306 46 344 7.0 11.0 0.02 0.35 0.11 96 1007.5
20260507042204 46 343 7.0 11.0 0.02 0.35 0.11 96 1007.6
20260507042104 46 344 6.0 11.0 0.02 0.35 0.11 96 1007.7
20260507042004 46 342 6.0 11.0 0.02 0.35 0.10 96 1007.6
20260507041911 46 341 6.0 11.0 0.02 0.35 0.10 96 1007.6
20260507041904 46 340 6.0 11.0 0.02 0.35 0.10 96 1007.6
20260507041804 46 338 5.0 11.0 0.02 0.35 0.10 96 1007.6
20260507041607 46 339 5.0 10.0 0.02 0.35 0.10 96 1007.6
20260507041504 46 338 5.0 8.0 0.02 0.35 0.10 96 1007.5
20260507041404 46 339 5.0 9.0 0.02 0.35 0.10 96 1007.4
20260507041304 47 337 5.0 9.0 0.01 0.34 0.10 96 1007.5
20260507041204 47 336 5.0 9.0 0.01 0.34 0.10 96 1007.6
20260507041104 47 335 5.0 9.0 0.01 0.34 0.10 96 1007.4
20260507041004 47 336 5.0 9.0 0.01 0.34 0.10 96 1007.6
20260507040904 47 335 5.0 9.0 0.01 0.34 0.10 96 1007.5
20260507040804 47 337 6.0 11.0 0.01 0.34 0.09 96 1007.5
20260507040704 47 335 6.0 11.0 0.01 0.34 0.09 96 1007.6
20260507040604 47 334 5.0 11.0 0.01 0.34 0.09 96 1007.5
20260507040505 47 334 5.0 11.0 0.01 0.34 0.09 95 1007.3
20260507040405 47 332 6.0 11.0 0.01 0.34 0.09 95 1007.5
20260507040305 47 334 6.0 11.0 0.01 0.34 0.09 96 1007.3
20260507040204 47 336 6.0 11.0 0.01 0.34 0.09 96 1007.4
20260507040104 47 336 6.0 11.0 0.01 0.34 0.09 96 1007.4
20260507040005 47 335 6.0 11.0 0.01 0.34 0.09 96 1007.4
20260507035904 47 336 6.0 11.0 0.01 0.34 0.09 96 1007.4
20260507035704 47 335 6.0 13.0 0.01 0.34 0.09 96 1007.3
20260507035604 47 334 5.0 13.0 0.01 0.34 0.09 96 1007.3
20260507035504 47 331 6.0 13.0 0.01 0.34 0.09 96 1007.2
20260507035404 47 330 6.0 13.0 0.01 0.34 0.09 96 1007.2
20260507035204 47 327 6.0 13.0 0.01 0.34 0.09 96 1007.3
20260507035104 47 329 6.0 13.0 0.01 0.34 0.09 96 1007.2
20260507035004 47 328 6.0 13.0 0.01 0.34 0.09 96 1007.1
20260507034904 47 325 6.0 13.0 0.01 0.34 0.09 96 1007.2
20260507034605 47 324 6.0 11.0 0.01 0.34 0.09 96 1007.2
20260507034505 47 324 5.0 10.0 0.01 0.34 0.09 96 1007.1
20260507034404 47 326 5.0 10.0 0.01 0.34 0.09 96 1007.2
20260507034304 47 326 5.0 10.0 0.01 0.34 0.09 96 1007.1
20260507034104 47 326 5.0 10.0 0.01 0.34 0.09 96 1007.2
20260507034005 47 327 5.0 10.0 0.01 0.34 0.09 96 1007.0
20260507033904 47 329 5.0 10.0 0.01 0.34 0.09 96 1007.2
20260507033804 47 330 6.0 11.0 0.01 0.34 0.09 96 1007.0
20260507033704 47 330 6.0 11.0 0.01 0.34 0.09 96 1007.2
20260507033604 47 333 6.0 13.0 0.01 0.34 0.09 96 1006.9
20260507033504 47 335 7.0 13.0 0.01 0.34 0.09 96 1007.0
20260507033404 47 334 7.0 13.0 0.01 0.34 0.09 96 1007.1
20260507033304 47 335 7.0 13.0 0.01 0.34 0.09 96 1007.0
20260507033204 47 337 7.0 13.0 0.01 0.34 0.09 96 1006.9
20260507033104 47 338 7.0 13.0 0.01 0.34 0.09 95 1007.0
20260507033004 47 340 7.0 13.0 0.01 0.34 0.09 95 1007.0
20260507032904 47 340 8.0 14.0 0.01 0.34 0.09 95 1007.0
20260507032804 47 342 8.0 14.0 0.01 0.34 0.09 95 1007.1
20260507032704 47 341 8.0 14.0 0.00 0.33 0.09 95 1007.1
20260507032604 47 340 8.0 14.0 0.00 0.33 0.09 95 1007.0
20260507032504 47 339 7.0 14.0 0.00 0.33 0.09 95 1007.0
20260507032404 47 339 7.0 14.0 0.00 0.33 0.09 95 1007.0
20260507032306 47 337 7.0 14.0 0.00 0.33 0.09 95 1007.1
20260507032205 47 336 7.0 14.0 0.00 0.33 0.09 95 1007.0
20260507032104 47 335 7.0 14.0 0.00 0.33 0.09 95 1007.0
20260507032004 47 333 7.0 14.0 0.00 0.33 0.09 95 1007.1
20260507031904 47 333 7.0 14.0 0.00 0.33 0.09 95 1007.0
20260507031704 47 331 6.0 11.0 0.00 0.33 0.09 95 1007.0
20260507031604 47 332 6.0 11.0 0.00 0.33 0.09 95 1006.8
20260507031506 47 332 6.0 11.0 0.01 0.33 0.09 95 1006.8
20260507031404 47 334 7.0 11.0 0.01 0.33 0.09 95 1006.9
20260507031204 47 340 7.0 11.0 0.01 0.33 0.09 95 1007.0
20260507031104 47 339 7.0 11.0 0.01 0.33 0.09 95 1006.8
20260507030904 47 336 7.0 11.0 0.01 0.33 0.09 95 1007.0
20260507030804 47 336 7.0 11.0 0.01 0.33 0.09 95 1006.9
20260507030704 47 337 7.0 11.0 0.01 0.33 0.09 95 1006.9
20260507030504 47 333 7.0 11.0 0.00 0.33 0.08 95 1006.7
20260507030405 47 330 7.0 11.0 0.00 0.33 0.08 95 1006.9
20260507030304 47 327 7.0 11.0 0.01 0.33 0.08 95 1007.0
20260507030204 47 326 7.0 11.0 0.01 0.33 0.08 95 1007.0
20260507030104 47 326 7.0 11.0 0.01 0.33 0.08 95 1006.9
20260507030005 47 327 7.0 11.0 0.01 0.33 0.08 95 1007.0
20260507025804 47 330 7.0 11.0 0.01 0.33 0.08 95 1006.9
20260507025704 47 329 7.0 11.0 0.01 0.33 0.08 95 1006.9
20260507025604 47 330 7.0 11.0 0.01 0.33 0.08 95 1006.9
20260507025504 47 331 7.0 11.0 0.01 0.33 0.08 95 1006.9
20260507025404 47 331 7.0 11.0 0.01 0.33 0.08 95 1006.7
20260507025306 47 333 7.0 11.0 0.01 0.33 0.08 95 1006.7
20260507025204 47 335 7.0 11.0 0.01 0.33 0.08 95 1006.8
20260507025104 47 336 7.0 13.0 0.01 0.33 0.08 95 1006.6
20260507025011 47 338 7.0 13.0 0.01 0.33 0.08 95 1006.7
20260507025004 47 337 7.0 13.0 0.01 0.33 0.08 95 1006.7
20260507024904 47 334 7.0 13.0 0.01 0.33 0.08 95 1006.5
20260507024704 47 335 8.0 13.0 0.01 0.33 0.08 95 1006.8
20260507024604 48 334 8.0 14.0 0.01 0.33 0.08 95 1006.8
20260507024505 48 334 8.0 14.0 0.01 0.33 0.08 95 1006.7
20260507024404 48 336 7.0 14.0 0.01 0.33 0.08 95 1006.9
20260507024204 48 334 7.0 14.0 0.01 0.33 0.08 95 1006.8
20260507024104 48 334 7.0 14.0 0.01 0.33 0.08 95 1006.8
20260507024007 48 334 7.0 14.0 0.01 0.33 0.08 95 1006.8
20260507023906 48 336 7.0 14.0 0.01 0.33 0.08 95 1006.8
20260507023604 48 339 8.0 14.0 0.01 0.33 0.08 95 1007.0
20260507023504 48 340 8.0 14.0 0.01 0.33 0.08 95 1006.7
20260507023404 48 340 8.0 14.0 0.01 0.33 0.08 95 1006.7
20260507023304 48 341 8.0 13.0 0.01 0.33 0.08 95 1006.7
20260507023204 48 341 8.0 13.0 0.01 0.33 0.08 95 1006.8
20260507023104 48 341 8.0 13.0 0.01 0.33 0.08 95 1006.9
20260507023004 48 341 8.0 13.0 0.01 0.33 0.08 95 1006.7
20260507022904 48 340 8.0 13.0 0.01 0.33 0.08 95 1006.8
20260507022804 48 339 8.0 13.0 0.01 0.33 0.08 95 1006.8
20260507022704 48 340 8.0 13.0 0.01 0.33 0.08 95 1006.8
20260507022604 48 341 8.0 13.0 0.01 0.33 0.08 95 1006.8
20260507022505 48 341 8.0 11.0 0.01 0.33 0.08 95 1006.8
20260507022404 48 343 8.0 11.0 0.01 0.33 0.08 95 1006.7
20260507022306 48 343 7.0 11.0 0.01 0.33 0.08 95 1006.9
20260507022204 48 344 7.0 11.0 0.01 0.33 0.08 95 1006.8
20260507022104 48 344 7.0 11.0 0.01 0.33 0.08 95 1006.9
20260507022004 48 344 6.0 11.0 0.01 0.33 0.08 95 1006.7
20260507021904 48 345 6.0 11.0 0.01 0.33 0.08 95 1006.8
20260507021804 48 346 6.0 11.0 0.01 0.33 0.08 95 1006.8
20260507021704 48 345 6.0 11.0 0.01 0.33 0.08 95 1006.6
20260507021605 48 343 6.0 11.0 0.01 0.33 0.08 95 1006.8
20260507021504 48 344 6.0 10.0 0.01 0.33 0.08 95 1006.7
20260507021406 48 342 6.0 10.0 0.01 0.33 0.08 94 1006.9
20260507021306 48 343 6.0 10.0 0.01 0.33 0.08 94 1006.7
20260507021204 48 345 7.0 11.0 0.01 0.33 0.08 94 1006.6
20260507021104 48 345 7.0 11.0 0.01 0.33 0.08 94 1006.7
20260507021004 48 346 7.0 11.0 0.01 0.33 0.08 94 1006.7
20260507020905 48 347 7.0 11.0 0.01 0.33 0.08 94 1006.8
20260507020804 48 347 7.0 11.0 0.02 0.33 0.08 94 1006.7
20260507020704 48 347 7.0 11.0 0.02 0.33 0.08 94 1006.6
20260507020604 48 347 7.0 11.0 0.03 0.33 0.08 94 1006.6
20260507020504 48 346 7.0 11.0 0.05 0.33 0.08 94 1006.5
20260507020404 48 345 7.0 11.0 0.05 0.33 0.08 94 1006.7
20260507020304 48 342 7.0 11.0 0.06 0.32 0.07 94 1006.8
20260507020205 48 340 6.0 11.0 0.06 0.32 0.07 94 1006.8
20260507020104 48 339 6.0 11.0 0.06 0.32 0.07 94 1006.5
20260507020006 48 337 6.0 11.0 0.06 0.32 0.07 94 1006.5
20260507015904 48 336 6.0 13.0 0.06 0.32 0.07 94 1006.6
20260507015804 48 335 6.0 13.0 0.06 0.32 0.07 94 1006.6
20260507015704 49 336 6.0 13.0 0.06 0.32 0.07 94 1006.5
20260507015604 49 337 6.0 13.0 0.06 0.32 0.07 94 1006.5
20260507015504 49 337 6.0 13.0 0.06 0.32 0.07 94 1006.8
20260507015306 49 339 6.0 13.0 0.06 0.32 0.07 94 1006.7
20260507015204 49 338 6.0 13.0 0.06 0.32 0.07 94 1006.6
20260507015104 49 338 7.0 13.0 0.06 0.32 0.07 94 1006.7
20260507015004 49 339 6.0 13.0 0.06 0.32 0.07 94 1006.5
20260507014904 49 339 6.0 11.0 0.06 0.32 0.07 94 1006.5
20260507014804 49 339 6.0 11.0 0.06 0.32 0.07 94 1006.7
20260507014704 49 337 6.0 10.0 0.06 0.32 0.07 94 1006.6
20260507014604 49 336 6.0 11.0 0.06 0.32 0.07 94 1006.4
20260507014504 49 339 6.0 13.0 0.06 0.32 0.07 94 1006.4
20260507014404 49 337 7.0 13.0 0.06 0.32 0.07 94 1006.6
20260507014304 49 336 6.0 13.0 0.07 0.32 0.07 94 1006.6
20260507014204 49 337 6.0 13.0 0.07 0.32 0.07 94 1006.5
20260507014104 49 337 6.0 13.0 0.07 0.32 0.07 94 1006.7
20260507014005 49 337 6.0 13.0 0.07 0.32 0.07 94 1006.4
20260507013804 49 337 6.0 13.0 0.07 0.32 0.07 94 1006.5
20260507013704 49 334 6.0 13.0 0.07 0.32 0.07 94 1006.3
20260507013604 49 334 6.0 13.0 0.07 0.32 0.07 94 1006.5
20260507013504 49 332 5.0 13.0 0.07 0.32 0.07 94 1006.4
20260507013404 49 330 5.0 11.0 0.07 0.32 0.07 94 1006.5
20260507013304 49 331 5.0 11.0 0.07 0.32 0.07 94 1006.3
20260507013211 49 330 5.0 11.0 0.07 0.32 0.07 94 1006.5
20260507013204 49 331 5.0 11.0 0.07 0.32 0.07 94 1006.5
20260507013104 49 330 5.0 11.0 0.07 0.32 0.07 94 1006.5
20260507012907 49 328 6.0 11.0 0.07 0.32 0.07 94 1006.4
20260507012812 49 329 6.0 11.0 0.07 0.32 0.07 94 1006.3
20260507012805 49 330 6.0 11.0 0.07 0.32 0.07 94 1006.3
20260507012704 49 332 6.0 11.0 0.07 0.32 0.07 94 1006.5
20260507012504 49 331 6.0 10.0 0.07 0.32 0.07 93 1006.4
20260507012404 49 332 6.0 10.0 0.07 0.32 0.07 93 1006.4
20260507012306 49 333 6.0 10.0 0.07 0.32 0.07 93 1006.3
20260507012205 49 334 6.0 10.0 0.07 0.32 0.07 93 1006.4
20260507012105 49 336 6.0 10.0 0.07 0.32 0.07 93 1006.3
20260507012005 50 338 5.0 10.0 0.07 0.32 0.07 93 1006.4
20260507011905 50 339 5.0 10.0 0.07 0.32 0.07 93 1006.3
20260507011815 50 338 5.0 10.0 0.07 0.32 0.07 93 1006.5
20260507011805 50 338 5.0 9.0 0.07 0.32 0.07 93 1006.5
20260507011705 50 339 5.0 9.0 0.07 0.32 0.07 93 1006.3
20260507011612 50 341 5.0 9.0 0.07 0.32 0.07 93 1006.4
20260507011509 50 344 5.0 9.0 0.07 0.32 0.07 93 1006.4
20260507011212 50 343 4.0 8.0 0.07 0.32 0.07 93 1006.3
20260507011204 50 342 4.0 8.0 0.07 0.32 0.07 93 1006.3
20260507011104 50 338 4.0 8.0 0.07 0.31 0.07 93 1006.3
20260507010912 50 334 4.0 8.0 0.07 0.31 0.07 93 1006.3
20260507010904 50 333 4.0 8.0 0.07 0.31 0.07 93 1006.3
20260507010804 50 333 4.0 8.0 0.06 0.31 0.06 93 1006.4
20260507010604 50 331 4.0 8.0 0.05 0.30 0.05 93 1006.5
20260507010504 50 330 4.0 8.0 0.03 0.28 0.03 93 1006.3
20260507010405 50 330 4.0 8.0 0.03 0.28 0.03 93 1006.5
20260507010305 50 332 4.0 8.0 0.01 0.26 0.01 93 1006.4
20260507010105 50 340 4.0 9.0 0.01 0.26 0.01 93 1006.5
20260507010006 50 341 5.0 9.0 0.01 0.26 0.01 93 1006.3
20260507005904 50 344 5.0 9.0 0.01 0.26 0.01 93 1006.4
20260507005804 50 346 5.0 9.0 0.01 0.26 0.01 93 1006.4
20260507005704 50 347 5.0 9.0 0.01 0.26 0.01 93 1006.2
20260507005604 50 347 5.0 9.0 0.01 0.26 0.01 93 1006.4
20260507005504 50 347 5.0 9.0 0.01 0.26 0.01 93 1006.2
20260507005404 50 347 5.0 9.0 0.01 0.26 0.01 93 1006.3
20260507005305 50 346 5.0 9.0 0.01 0.26 0.01 93 1006.2
20260507005204 50 346 5.0 8.0 0.01 0.26 0.01 93 1006.4
20260507005104 50 347 5.0 8.0 0.01 0.26 0.01 93 1006.3
20260507005004 50 348 5.0 7.0 0.01 0.26 0.01 93 1006.2
20260507004904 50 348 5.0 7.0 0.01 0.26 0.01 93 1006.3
20260507004804 51 347 5.0 7.0 0.01 0.26 0.01 93 1006.4
20260507004704 51 347 4.0 7.0 0.01 0.26 0.01 92 1006.2
20260507004611 51 347 4.0 7.0 0.01 0.26 0.01 92 1006.3
20260507004504 51 348 4.0 7.0 0.01 0.26 0.01 92 1006.2
20260507004304 51 345 4.0 9.0 0.00 0.25 0.00 92 1006.3
20260507004204 51 344 4.0 9.0 0.00 0.25 0.00 92 1006.3
20260507004104 51 341 4.0 9.0 0.00 0.25 0.00 92 1006.3
20260507003904 51 339 4.0 9.0 0.00 0.25 0.00 92 1006.3
20260507003804 51 338 4.0 9.0 0.00 0.25 0.00 92 1006.3
20260507003704 51 336 4.0 9.0 0.00 0.25 0.00 92 1006.3
20260507003604 51 334 4.0 9.0 0.00 0.25 0.00 92 1006.4
20260507003504 51 333 4.0 9.0 0.00 0.25 0.00 92 1006.4
20260507003411 51 334 4.0 7.0 0.00 0.25 0.00 92 1006.3
20260507003404 51 335 4.0 7.0 0.00 0.25 0.00 92 1006.3
20260507003304 51 336 4.0 7.0 0.00 0.25 0.00 92 1006.2
20260507003211 51 337 4.0 7.0 0.00 0.26 0.00 92 1006.2
20260507003104 51 337 3.0 7.0 0.00 0.26 0.00 92 1006.1
20260507003011 51 337 3.0 7.0 0.00 0.25 0.00 92 1006.1
20260507002904 51 336 3.0 7.0 0.00 0.25 0.00 92 1006.1
20260507002704 51 335 2.0 6.0 0.00 0.25 0.00 91 1006.1
20260507002604 51 334 2.0 6.0 0.00 0.25 0.00 91 1006.2
20260507002504 51 332 2.0 4.0 0.00 0.25 0.00 91 1006.3
20260507002404 51 332 2.0 4.0 0.00 0.25 0.00 91 1006.1
20260507002311 51 328 2.0 3.0 0.00 0.25 0.00 91 1006.2
20260507002306 51 327 2.0 3.0 0.00 0.25 0.00 91 1006.2
20260507002204 51 325 2.0 3.0 0.00 0.25 0.00 91 1006.1
20260507002004 51 324 2.0 3.0 0.00 0.25 0.00 91 1006.1
20260507001904 51 321 2.0 3.0 0.00 0.25 0.00 91 1006.2
20260507001804 51 319 2.0 3.0 0.00 0.25 0.00 91 1006.0
20260507001705 51 318 1.0 3.0 0.00 0.25 0.00 91 1006.0
20260507001604 51 319 1.0 3.0 0.00 0.25 0.00 91 1006.2
20260507001504 51 319 1.0 3.0 0.00 0.25 0.00 91 1006.3
20260507001404 51 317 1.0 3.0 0.00 0.25 0.00 91 1006.1
20260507001304 51 316 1.0 3.0 0.00 0.25 0.00 91 1006.2
20260507001104 51 302 1.0 3.0 0.00 0.25 0.00 91 1006.2
20260507001011 51 299 0.0 3.0 0.00 0.25 0.00 91 1006.3
20260507001004 51 296 0.0 3.0 0.00 0.25 0.00 91 1006.3
20260507000904 51 297 0.0 3.0 0.00 0.25 0.00 90 1006.3
20260507000704 51 0 0.0 0.0 0.00 0.25 0.00 90 1006.1
20260507000604 51 0 0.0 0.0 0.00 0.25 0.00 90 1006.2
20260507000505 51 0 0.0 0.0 0.00 0.25 0.00 90 1006.3
20260507000405 51 0 0.0 0.0 0.00 0.25 0.00 90 1006.0
20260507000205 50 0 0.0 0.0 0.00 0.25 0.00 90 1006.1
20260507000104 50 0 0.0 0.0 0.00 0.25 0.00 90 1006.2
20260506235904 50 0 0.0 0.0 0.00 0.25 0.00 90 1006.0
20260506235804 50 0 0.0 0.0 0.00 0.25 0.00 90 1006.1
20260506235711 50 0 0.0 0.0 0.00 0.25 0.00 90 1006.1
20260506235604 50 0 0.0 0.0 0.00 0.25 0.00 90 1006.3
20260506235306 50 0 0.0 0.0 0.00 0.25 0.00 90 1006.2
20260506235205 50 0 0.0 0.0 0.00 0.25 0.00 90 1006.2
20260506235104 50 0 0.0 0.0 0.00 0.25 0.00 90 1006.3
20260506235004 50 0 0.0 0.0 0.00 0.25 0.00 90 1006.1
20260506234904 50 0 0.0 0.0 0.00 0.25 0.00 90 1006.2
20260506234804 50 0 0.0 0.0 0.00 0.25 0.00 90 1006.1
20260506234704 50 0 0.0 0.0 0.00 0.25 0.00 90 1006.1
20260506234604 50 0 0.0 0.0 0.00 0.25 0.00 90 1006.1
20260506234404 50 0 0.0 0.0 0.00 0.25 0.00 90 1006.2
20260506234304 50 0 0.0 0.0 0.00 0.25 0.00 90 1006.3
20260506234204 50 0 0.0 0.0 0.00 0.25 0.00 90 1006.3
20260506234104 50 0 0.0 0.0 0.00 0.25 0.00 90 1006.1
20260506234004 50 0 0.0 0.0 0.00 0.25 0.00 90 1006.3
20260506233904 50 0 0.0 0.0 0.00 0.25 0.00 90 1006.3
20260506233804 51 0 0.0 0.0 0.00 0.25 0.00 90 1006.1
20260506233704 51 0 0.0 0.0 0.00 0.25 0.00 90 1006.4
20260506233604 51 0 0.0 0.0 0.00 0.25 0.00 90 1006.3
20260506233504 51 0 0.0 0.0 0.00 0.25 0.00 90 1006.3
20260506233404 51 0 0.0 0.0 0.00 0.25 0.00 90 1006.2
20260506233311 51 0 0.0 0.0 0.00 0.25 0.00 90 1006.2
20260506233204 51 0 0.0 0.0 0.00 0.25 0.00 90 1006.3
20260506233004 51 0 0.0 0.0 0.00 0.25 0.00 90 1006.2
20260506232904 51 0 0.0 0.0 0.00 0.25 0.00 90 1006.2
20260506232804 51 0 0.0 0.0 0.00 0.25 0.00 90 1006.0
20260506232604 51 0 0.0 0.0 0.00 0.25 0.00 90 1006.2
20260506232504 51 0 0.0 0.0 0.00 0.25 0.00 90 1006.1
20260506232404 51 0 0.0 0.0 0.00 0.25 0.00 90 1006.2
20260506232306 51 0 0.0 0.0 0.00 0.25 0.00 90 1006.1
20260506232104 51 0 0.0 0.0 0.00 0.25 0.00 90 1006.1
20260506232004 51 0 0.0 0.0 0.00 0.26 0.00 90 1006.1
20260506231904 51 0 0.0 0.0 0.00 0.26 0.00 90 1006.1
20260506231804 51 0 0.0 0.0 0.00 0.26 0.00 90 1006.0
20260506231704 51 0 0.0 0.0 0.00 0.26 0.00 89 1006.0
20260506231604 51 0 0.0 0.0 0.00 0.26 0.00 89 1005.9
20260506231305 51 0 0.0 0.0 0.00 0.26 0.00 89 1006.1
20260506231204 51 0 0.0 0.0 0.00 0.26 0.00 89 1005.9
20260506231104 51 0 0.0 0.0 0.00 0.26 0.00 89 1006.1
20260506230904 51 0 0.0 0.0 0.00 0.26 0.00 89 1006.1
20260506230804 51 0 0.0 0.0 0.00 0.26 0.00 89 1005.9
20260506230704 51 0 0.0 0.0 0.00 0.26 0.00 89 1006.1
20260506230611 51 0 0.0 0.0 0.00 0.26 0.00 89 1006.0
20260506230504 51 0 0.0 0.0 0.00 0.26 0.00 89 1006.1
20260506230204 52 0 0.0 0.0 0.00 0.26 0.00 90 1006.1
20260506230104 52 0 0.0 0.0 0.00 0.26 0.00 90 1006.1
20260506230004 52 0 0.0 0.0 0.00 0.26 0.00 90 1006.2
20260506225904 52 0 0.0 0.0 0.00 0.26 0.00 90 1005.9
20260506225804 52 0 0.0 0.0 0.00 0.26 0.00 90 1006.2
20260506225704 52 0 0.0 0.0 0.00 0.26 0.00 90 1006.0
20260506225604 52 0 0.0 0.0 0.00 0.26 0.00 90 1006.2
20260506225504 52 0 0.0 0.0 0.00 0.26 0.00 89 1006.1
20260506225404 52 0 0.0 0.0 0.00 0.26 0.00 89 1006.0
20260506225204 52 0 0.0 0.0 0.00 0.26 0.00 89 1006.1
20260506225104 52 0 0.0 0.0 0.00 0.26 0.00 89 1006.2
20260506225004 52 0 0.0 0.0 0.00 0.26 0.00 89 1006.3
20260506224904 52 0 0.0 0.0 0.00 0.27 0.00 89 1006.0
20260506224804 52 0 0.0 0.0 0.00 0.27 0.00 89 1006.2
20260506224704 52 0 0.0 0.0 0.00 0.27 0.00 89 1006.0
20260506224604 52 0 0.0 0.0 0.00 0.27 0.00 89 1005.9
20260506224504 52 0 0.0 0.0 0.00 0.27 0.00 89 1006.2
20260506224404 52 0 0.0 0.0 0.00 0.27 0.00 89 1006.3
20260506224304 52 0 0.0 0.0 0.00 0.27 0.00 89 1006.0
20260506224204 52 0 0.0 0.0 0.00 0.28 0.00 89 1006.0
20260506224104 52 0 0.0 0.0 0.00 0.28 0.00 89 1006.0
20260506224004 52 0 0.0 0.0 0.00 0.28 0.00 89 1006.0
20260506223804 52 0 0.0 0.0 0.00 0.28 0.00 89 1006.0
20260506223705 52 0 0.0 0.0 0.00 0.28 0.00 89 1005.9
20260506223606 52 0 0.0 0.0 0.00 0.28 0.00 89 1005.9
20260506223404 52 0 0.0 0.0 0.00 0.28 0.00 89 1005.9
20260506223304 52 0 0.0 0.0 0.00 0.29 0.00 89 1006.0
20260506223204 52 0 0.0 0.0 0.00 0.29 0.00 89 1006.0
20260506223004 52 0 0.0 0.0 0.00 0.29 0.00 89 1005.9
20260506222904 52 0 0.0 0.0 0.00 0.29 0.00 89 1006.1
20260506222704 52 0 0.0 0.0 0.00 0.29 0.00 89 1006.0
20260506222604 52 0 0.0 0.0 0.00 0.29 0.00 89 1006.1
20260506222504 52 0 0.0 0.0 0.00 0.29 0.00 89 1005.9
20260506222404 52 0 0.0 0.0 0.00 0.29 0.00 89 1006.2
20260506222306 52 0 0.0 0.0 0.01 0.30 0.00 89 1006.1
20260506222204 52 0 0.0 0.0 0.01 0.30 0.00 89 1005.8
20260506222104 52 0 0.0 0.0 0.01 0.30 0.00 89 1006.1
20260506222004 52 0 0.0 0.0 0.01 0.30 0.00 89 1006.1
20260506221904 52 0 0.0 0.0 0.01 0.30 0.00 89 1006.0
20260506221804 52 0 0.0 0.0 0.01 0.30 0.00 89 1006.0
20260506221712 52 0 0.0 0.0 0.02 0.30 0.00 89 1005.9
20260506221604 52 0 0.0 0.0 0.02 0.30 0.00 89 1006.0
20260506221404 52 0 0.0 0.0 0.02 0.30 0.00 89 1006.0
20260506221304 52 0 0.0 0.0 0.03 0.30 0.00 89 1005.9
20260506221204 52 0 0.0 0.0 0.03 0.30 0.00 89 1006.0
20260506220904 52 0 0.0 0.0 0.04 0.31 0.00 89 1006.0
20260506220804 52 0 0.0 0.0 0.04 0.31 0.00 89 1006.1
20260506220704 52 0 0.0 0.0 0.05 0.31 0.00 89 1005.9
20260506220604 52 0 0.0 0.0 0.06 0.31 0.00 89 1005.9
20260506220504 52 0 0.0 0.0 0.07 0.31 0.00 89 1005.9
20260506220404 52 0 0.0 0.0 0.07 0.31 0.00 89 1006.1
20260506220206 52 0 0.0 0.0 0.08 0.32 0.00 89 1006.0
20260506220106 52 0 0.0 0.0 0.08 0.32 0.00 89 1006.0
20260506220049 52 0 0.0 0.0 0.09 0.32 0.00 89 1006.0
20260506215904 52 0 0.0 0.0 0.09 0.33 0.32 89 1006.1
20260506215804 52 0 0.0 0.0 0.09 0.33 0.32 89 1006.0
20260506215604 52 0 0.0 0.0 0.10 0.33 0.32 89 1005.9
20260506215504 52 0 0.0 0.0 0.11 0.33 0.32 89 1005.9
20260506215404 52 252 0.0 1.0 0.12 0.33 0.32 89 1006.1
20260506215306 53 249 0.0 2.0 0.13 0.34 0.32 89 1006.2
20260506215204 52 248 0.0 2.0 0.17 0.34 0.32 89 1005.9
20260506215006 53 248 0.0 2.0 0.18 0.35 0.32 89 1006.0
20260506214904 53 248 0.0 2.0 0.19 0.35 0.32 89 1006.2
20260506214804 53 248 0.0 2.0 0.19 0.36 0.32 89 1006.1
20260506214704 53 248 0.0 2.0 0.19 0.36 0.32 89 1006.0
20260506214604 53 244 0.0 2.0 0.19 0.37 0.32 89 1006.0
20260506214504 53 239 0.0 2.0 0.19 0.36 0.32 89 1006.0
20260506214304 52 225 0.0 2.0 0.19 0.37 0.32 89 1005.9
20260506214204 52 223 1.0 3.0 0.19 0.37 0.32 89 1006.0
20260506214104 52 224 1.0 3.0 0.19 0.37 0.32 89 1006.0
20260506214004 52 223 1.0 3.0 0.19 0.38 0.32 89 1005.9
20260506213906 52 222 1.0 4.0 0.19 0.38 0.32 89 1005.8
20260506213804 52 224 2.0 4.0 0.19 0.39 0.32 89 1005.9
20260506213711 52 225 2.0 6.0 0.19 0.39 0.32 89 1006.0
20260506213604 52 226 2.0 6.0 0.19 0.40 0.32 89 1006.0
20260506213404 52 228 2.0 6.0 0.19 0.41 0.32 89 1005.8
20260506213304 52 230 2.0 6.0 0.19 0.43 0.32 89 1006.0
20260506213204 52 231 2.0 6.0 0.19 0.44 0.32 89 1006.1
20260506213104 52 231 2.0 6.0 0.19 0.44 0.32 89 1005.9
20260506213011 52 233 2.0 6.0 0.19 0.44 0.32 89 1006.1
20260506212904 52 235 2.0 6.0 0.19 0.46 0.32 89 1006.0
20260506212706 52 236 1.0 4.0 0.19 0.47 0.32 89 1006.1
20260506212604 52 241 1.0 4.0 0.20 0.48 0.32 89 1006.1
20260506212504 52 249 1.0 4.0 0.20 0.48 0.32 89 1006.0
20260506212306 52 282 1.0 3.0 0.20 0.49 0.31 89 1006.0
20260506212204 52 286 1.0 4.0 0.20 0.50 0.31 89 1006.1
20260506212104 52 285 1.0 4.0 0.20 0.50 0.31 89 1005.8
20260506211904 52 291 1.0 4.0 0.20 0.51 0.31 89 1005.8
20260506211804 52 292 2.0 4.0 0.20 0.51 0.31 89 1005.9
20260506211704 52 292 2.0 4.0 0.19 0.51 0.31 89 1005.9
20260506211604 52 292 2.0 4.0 0.20 0.51 0.31 89 1006.0
20260506211404 52 294 1.0 4.0 0.19 0.52 0.30 88 1006.0
20260506211304 52 291 1.0 4.0 0.18 0.51 0.29 88 1005.9
20260506211204 52 293 1.0 4.0 0.19 0.52 0.29 88 1005.9
20260506211104 52 296 1.0 3.0 0.19 0.53 0.29 88 1006.0
20260506211004 52 298 1.0 3.0 0.18 0.53 0.29 88 1005.8
20260506210804 52 298 1.0 4.0 0.17 0.53 0.28 88 1005.8
20260506210704 52 299 1.0 4.0 0.17 0.54 0.28 88 1005.9
20260506210604 52 301 1.0 4.0 0.16 0.53 0.26 88 1005.8
20260506210504 52 302 1.0 4.0 0.15 0.53 0.26 88 1005.8
20260506210413 53 296 1.0 4.0 0.17 0.53 0.26 88 1005.8
20260506210404 53 295 1.0 4.0 0.17 0.53 0.26 88 1005.8
20260506210304 53 289 1.0 4.0 0.17 0.53 0.25 88 1005.9
20260506210005 53 270 2.0 7.0 0.15 0.52 0.23 88 1005.9
20260506205904 53 265 2.0 7.0 0.15 0.53 0.23 88 1005.8
20260506205804 53 261 3.0 7.0 0.14 0.54 0.23 88 1005.9
20260506205704 53 258 3.0 7.0 0.13 0.53 0.22 88 1005.8
20260506205604 53 257 3.0 7.0 0.13 0.54 0.22 88 1006.1
20260506205504 53 255 3.0 7.0 0.13 0.54 0.21 88 1006.1
20260506205404 53 258 2.0 7.0 0.12 0.53 0.20 88 1006.1
20260506205306 53 260 2.0 7.0 0.11 0.53 0.19 88 1005.8
20260506205204 53 265 2.0 6.0 0.07 0.50 0.15 88 1005.9
20260506205104 53 271 2.0 4.0 0.07 0.50 0.15 88 1006.0
20260506205004 53 275 2.0 4.0 0.06 0.50 0.15 88 1006.0
20260506204904 53 281 1.0 4.0 0.05 0.50 0.14 88 1006.0
20260506204804 53 285 1.0 3.0 0.05 0.50 0.13 88 1006.2
20260506204704 53 291 1.0 3.0 0.05 0.50 0.13 88 1005.9
20260506204604 53 291 1.0 2.0 0.05 0.50 0.13 88 1005.8
20260506204504 53 298 1.0 2.0 0.05 0.52 0.13 88 1006.0
20260506204404 53 302 1.0 3.0 0.05 0.52 0.13 88 1005.9
20260506204305 53 306 1.0 3.0 0.05 0.53 0.13 88 1006.0
20260506204204 53 307 1.0 3.0 0.05 0.53 0.13 88 1006.0
20260506204104 53 310 1.0 3.0 0.05 0.54 0.13 88 1006.0
20260506204004 53 314 1.0 3.0 0.05 0.54 0.13 88 1005.8
20260506203804 53 327 1.0 3.0 0.05 0.55 0.13 88 1005.9
20260506203704 53 327 2.0 3.0 0.05 0.55 0.13 88 1006.1
20260506203604 53 330 2.0 3.0 0.05 0.56 0.13 88 1005.8
20260506203504 53 332 2.0 4.0 0.05 0.56 0.13 88 1005.9
20260506203304 53 334 2.0 4.0 0.05 0.57 0.13 88 1005.9
20260506203204 53 336 2.0 4.0 0.05 0.57 0.13 88 1006.0
20260506203104 53 334 2.0 4.0 0.04 0.57 0.13 88 1005.9
20260506203004 53 334 2.0 4.0 0.04 0.57 0.13 88 1005.9
20260506202904 53 332 2.0 4.0 0.04 0.57 0.13 88 1005.8
20260506202804 53 326 2.0 4.0 0.04 0.58 0.13 88 1005.9
20260506202505 53 320 2.0 4.0 0.03 0.58 0.12 87 1005.8
20260506202404 53 321 2.0 4.0 0.03 0.59 0.12 87 1005.8
20260506202204 53 322 2.0 6.0 0.03 0.60 0.12 87 1005.9
20260506202104 53 322 2.0 6.0 0.03 0.61 0.12 87 1005.8
20260506202004 53 319 2.0 6.0 0.03 0.61 0.11 87 1005.9
20260506201804 53 324 2.0 6.0 0.03 0.63 0.11 87 1006.0
20260506201704 53 325 3.0 6.0 0.03 0.64 0.11 87 1005.6
20260506201604 53 324 3.0 6.0 0.02 0.64 0.11 87 1005.9
20260506201506 53 323 3.0 6.0 0.02 0.65 0.11 87 1005.8
20260506201404 53 321 2.0 6.0 0.02 0.66 0.11 87 1005.9
20260506201304 53 318 2.0 6.0 0.02 0.67 0.11 87 1005.8
20260506201205 53 311 2.0 6.0 0.02 0.67 0.11 87 1005.9
20260506201104 53 306 2.0 6.0 0.02 0.68 0.11 87 1005.6
20260506201004 53 306 2.0 6.0 0.02 0.69 0.11 86 1005.8
20260506200904 53 297 2.0 6.0 0.02 0.69 0.11 86 1005.5
20260506200805 53 286 2.0 4.0 0.02 0.70 0.11 86 1005.8
20260506200711 53 280 1.0 4.0 0.02 0.71 0.11 86 1005.6
20260506200704 53 279 1.0 4.0 0.02 0.71 0.11 86 1005.6
20260506200604 53 274 1.0 4.0 0.02 0.71 0.11 85 1005.4
20260506200411 53 265 1.0 4.0 0.00 0.72 0.09 85 1005.6
20260506200404 53 264 1.0 4.0 0.00 0.72 0.09 85 1005.6
20260506200304 53 257 1.0 4.0 0.00 0.72 0.09 85 1005.5
20260506200104 53 251 1.0 4.0 0.00 0.74 0.09 85 1005.5
20260506200005 53 250 1.0 4.0 0.00 0.74 0.09 85 1005.4
20260506195904 53 247 1.0 4.0 0.00 0.74 0.09 85 1005.4
20260506195805 53 248 1.0 4.0 0.00 0.74 0.09 85 1005.6
20260506195704 53 248 1.0 4.0 0.00 0.75 0.09 85 1005.5
20260506195604 53 249 1.0 4.0 0.00 0.75 0.09 85 1005.5
20260506195412 53 252 2.0 4.0 0.00 0.77 0.09 85 1005.6
20260506195404 53 253 2.0 4.0 0.00 0.77 0.09 85 1005.6
20260506195306 53 252 2.0 4.0 0.00 0.77 0.09 85 1005.5
20260506195104 53 262 2.0 4.0 0.00 0.78 0.09 85 1005.4
20260506195004 53 265 2.0 4.0 0.00 0.79 0.09 85 1005.3
20260506194904 53 269 2.0 4.0 0.00 0.79 0.09 85 1005.5
20260506194804 53 273 2.0 4.0 0.00 0.80 0.09 85 1005.5
20260506194711 53 278 2.0 4.0 0.00 0.80 0.09 85 1005.3
20260506194704 53 279 2.0 4.0 0.00 0.80 0.09 85 1005.3
20260506194605 53 281 2.0 4.0 0.00 0.81 0.09 85 1005.2
20260506194412 53 290 2.0 4.0 0.00 0.81 0.09 85 1005.4
20260506194304 53 295 2.0 4.0 0.00 0.81 0.09 84 1005.4
20260506194104 53 303 2.0 4.0 0.00 0.82 0.09 84 1005.3
20260506194004 53 303 2.0 4.0 0.00 0.82 0.09 84 1005.3
20260506193904 53 305 3.0 4.0 0.00 0.82 0.09 84 1005.4
20260506193804 53 306 3.0 4.0 0.00 0.83 0.09 84 1005.4
20260506193704 53 309 3.0 7.0 0.00 0.83 0.09 84 1005.3
20260506193604 53 305 3.0 7.0 0.00 0.84 0.09 84 1005.3
20260506193504 53 306 3.0 7.0 0.00 0.84 0.09 84 1005.2
20260506193404 53 307 3.0 7.0 0.00 0.84 0.09 84 1005.2
20260506193304 53 307 3.0 7.0 0.00 0.85 0.09 84 1005.1
20260506193211 53 309 3.0 7.0 0.00 0.85 0.09 84 1005.1
20260506193104 53 312 3.0 8.0 0.00 0.86 0.09 84 1005.3
20260506192904 53 324 4.0 10.0 0.00 0.87 0.09 84 1005.2
20260506192804 53 329 5.0 10.0 0.00 0.87 0.09 84 1005.3
20260506192712 53 331 5.0 10.0 0.00 0.87 0.09 84 1005.3
20260506192704 53 330 5.0 10.0 0.00 0.87 0.09 84 1005.3
20260506192604 53 333 5.0 10.0 0.00 0.88 0.09 84 1005.2
20260506192404 53 336 6.0 10.0 0.00 0.89 0.09 84 1005.3
20260506192305 53 340 6.0 10.0 0.00 0.89 0.09 84 1005.1
20260506192204 53 342 6.0 10.0 0.00 0.89 0.09 84 1005.3
20260506192104 53 344 6.0 10.0 0.00 0.90 0.09 84 1005.2
20260506192004 54 345 6.0 10.0 0.00 0.90 0.09 84 1005.2
20260506191904 54 343 5.0 9.0 0.00 0.90 0.09 83 1005.0
20260506191804 54 342 5.0 9.0 0.00 0.90 0.09 83 1005.0
20260506191704 54 342 4.0 9.0 0.00 0.91 0.09 83 1005.1
20260506191604 54 348 4.0 9.0 0.00 0.91 0.09 83 1005.1
20260506191511 54 354 3.0 9.0 0.00 0.91 0.09 83 1005.0
20260506191504 54 355 3.0 9.0 0.00 0.91 0.09 83 1005.0
20260506191404 54 356 2.0 9.0 0.00 0.92 0.09 82 1005.1
20260506191204 54 356 1.0 7.0 0.00 0.92 0.09 81 1005.0
20260506191104 55 356 0.0 3.0 0.00 0.93 0.09 80 1005.1
20260506191004 55 356 0.0 3.0 0.00 0.93 0.09 79 1005.0
20260506190904 55 0 0.0 0.0 0.00 0.93 0.09 79 1004.8
20260506190804 55 0 0.0 0.0 0.00 0.93 0.09 79 1005.0
20260506190704 55 0 0.0 0.0 0.00 0.93 0.09 78 1004.8
20260506190405 55 234 0.0 4.0 0.00 0.94 0.09 78 1004.7
20260506190304 55 235 1.0 7.0 0.00 0.94 0.09 78 1004.7
20260506190204 55 227 1.0 7.0 0.00 0.94 0.09 78 1004.7
20260506190006 55 228 2.0 8.0 0.00 0.95 0.09 78 1004.7
20260506185904 55 226 3.0 8.0 0.00 0.95 0.09 78 1004.5
20260506185804 55 224 3.0 8.0 0.00 0.95 0.09 78 1004.6
20260506185704 55 220 3.0 8.0 0.00 0.95 0.09 78 1004.5
20260506185605 55 218 4.0 8.0 0.00 0.96 0.09 78 1004.5
20260506185504 55 216 4.0 8.0 0.00 0.96 0.09 78 1004.5
20260506185404 55 214 4.0 8.0 0.00 0.96 0.09 78 1004.3
20260506185307 55 211 4.0 8.0 0.00 0.96 0.09 78 1004.4
20260506185105 56 210 4.0 9.0 0.00 0.96 0.09 77 1004.5
20260506185004 56 209 4.0 9.0 0.00 0.96 0.09 77 1004.4
20260506184905 56 208 4.0 9.0 0.00 0.96 0.09 77 1004.2
20260506184805 56 208 4.0 9.0 0.00 0.97 0.09 77 1004.2
20260506184705 56 210 4.0 9.0 0.00 0.97 0.09 77 1004.1
20260506184605 56 212 4.0 9.0 0.00 0.97 0.09 77 1004.1
20260506184505 56 214 4.0 9.0 0.00 0.97 0.09 77 1004.2
20260506184405 56 215 4.0 9.0 0.00 0.97 0.09 77 1004.1
20260506184305 56 213 4.0 9.0 0.00 0.97 0.09 77 1004.3
20260506184204 56 213 4.0 9.0 0.00 0.97 0.09 77 1004.2
20260506184104 56 211 4.0 8.0 0.00 0.97 0.09 77 1004.3
20260506184007 56 213 4.0 8.0 0.00 0.97 0.09 77 1004.1
20260506183906 56 215 4.0 8.0 0.00 0.97 0.09 77 1004.1
20260506183804 56 215 4.0 9.0 0.00 0.97 0.09 77 1004.2
20260506183613 56 215 5.0 9.0 0.00 0.97 0.09 77 1004.2
20260506183604 56 214 5.0 9.0 0.00 0.97 0.09 77 1004.2
20260506183504 56 214 5.0 9.0 0.00 0.97 0.09 77 1004.1
20260506183313 56 216 5.0 14.0 0.00 0.97 0.09 77 1004.2
20260506183206 56 216 6.0 14.0 0.00 0.97 0.09 77 1004.0
20260506183005 56 215 6.0 14.0 0.00 0.97 0.09 77 1003.8
20260506182904 56 214 6.0 14.0 0.00 0.97 0.09 77 1004.0
20260506182804 56 214 6.0 14.0 0.00 0.97 0.09 77 1003.9
20260506182704 56 215 6.0 14.0 0.00 0.97 0.09 77 1003.8
20260506182604 56 214 6.0 14.0 0.00 0.97 0.09 77 1003.8
20260506182504 56 214 6.0 14.0 0.00 0.97 0.09 77 1003.9
20260506182307 56 216 6.0 11.0 0.00 0.98 0.09 77 1003.7
20260506182205 56 217 6.0 11.0 0.00 0.98 0.09 78 1003.9
20260506182106 56 216 5.0 11.0 0.00 0.98 0.09 78 1003.8
20260506182004 56 215 5.0 11.0 0.00 0.98 0.09 78 1003.9
20260506181904 56 217 5.0 9.0 0.00 0.98 0.09 78 1003.7
20260506181705 56 217 5.0 10.0 0.00 0.98 0.09 78 1003.8
20260506181604 56 217 5.0 10.0 0.00 0.98 0.09 78 1003.7
20260506181504 56 217 5.0 10.0 0.00 0.98 0.09 78 1003.7
20260506181404 56 215 4.0 10.0 0.00 0.98 0.09 78 1003.7
20260506181304 56 211 4.0 10.0 0.00 0.98 0.09 78 1003.8
20260506181204 56 210 4.0 10.0 0.00 0.98 0.09 78 1003.8
20260506181104 56 210 4.0 10.0 0.00 0.98 0.09 78 1003.9
20260506181005 56 207 3.0 10.0 0.00 0.98 0.09 78 1003.9
20260506180904 56 205 3.0 10.0 0.00 0.98 0.09 78 1003.8
20260506180804 56 204 3.0 9.0 0.01 0.98 0.09 78 1003.7
20260506180704 56 206 4.0 9.0 0.01 0.98 0.09 78 1004.0
20260506180604 56 208 4.0 9.0 0.01 0.98 0.09 78 1003.8
20260506180505 56 209 5.0 9.0 0.01 0.99 0.09 78 1003.7
20260506180405 56 211 5.0 9.0 0.01 0.99 0.09 78 1003.8
20260506180305 56 213 6.0 9.0 0.01 0.99 0.09 78 1003.7
20260506180205 56 214 6.0 9.0 0.01 0.99 0.09 78 1003.9
20260506180106 56 216 6.0 9.0 0.01 0.99 0.09 78 1003.7
20260506180011 56 217 6.0 9.0 0.01 0.99 0.09 78 1003.8
20260506175905 56 214 7.0 9.0 0.01 0.99 0.09 78 1003.7
20260506175811 56 212 7.0 9.0 0.01 0.99 0.09 78 1003.7
20260506175711 56 209 7.0 9.0 0.01 0.99 0.09 78 1003.6
20260506175704 56 208 7.0 9.0 0.01 0.99 0.09 78 1003.6
20260506175511 56 201 7.0 9.0 0.01 0.99 0.09 79 1003.8
20260506175404 56 199 7.0 9.0 0.01 0.99 0.09 79 1003.6
20260506175204 56 192 6.0 9.0 0.01 0.99 0.09 79 1003.6
20260506175104 56 188 7.0 9.0 0.01 1.00 0.09 79 1003.6
20260506175004 56 188 7.0 11.0 0.01 1.00 0.09 79 1003.6
20260506174911 56 189 6.0 11.0 0.01 1.00 0.09 79 1003.8
20260506174904 56 190 6.0 11.0 0.01 1.00 0.09 79 1003.8
20260506174604 56 190 6.0 11.0 0.01 1.00 0.09 79 1003.6
20260506174504 56 190 6.0 11.0 0.01 1.00 0.09 80 1003.7
20260506174404 56 189 6.0 11.0 0.01 1.00 0.09 80 1003.8
20260506174305 56 189 6.0 11.0 0.01 1.00 0.09 80 1003.8
20260506174106 56 196 6.0 11.0 0.01 1.00 0.09 80 1003.7
20260506174004 56 198 6.0 10.0 0.01 1.00 0.09 80 1003.6
20260506173904 56 198 6.0 10.0 0.01 1.00 0.09 80 1003.8
20260506173804 56 196 6.0 10.0 0.01 1.00 0.09 80 1003.9
20260506173704 56 197 6.0 10.0 0.01 1.00 0.09 80 1003.8
20260506173605 56 202 6.0 10.0 0.01 1.00 0.09 80 1003.9
20260506173411 56 209 6.0 9.0 0.01 1.00 0.09 80 1003.8
20260506173404 56 210 6.0 9.0 0.01 1.00 0.09 80 1003.8
20260506173304 56 218 6.0 8.0 0.01 1.00 0.09 79 1004.1
20260506173104 55 230 6.0 8.0 0.01 1.00 0.09 79 1003.9
20260506173004 55 231 6.0 8.0 0.01 1.00 0.09 79 1003.8
20260506172904 55 230 6.0 10.0 0.01 1.00 0.09 79 1003.9
20260506172805 55 232 6.0 15.0 0.01 1.00 0.09 79 1003.9
20260506172704 55 237 7.0 15.0 0.01 1.00 0.09 78 1004.1
20260506172604 55 236 7.0 15.0 0.01 1.00 0.09 78 1004.0
20260506172504 55 237 7.0 15.0 0.01 1.00 0.09 78 1004.1
20260506172404 55 235 8.0 15.0 0.01 1.00 0.09 78 1004.0
20260506172306 55 233 8.0 15.0 0.01 1.00 0.09 78 1003.9
20260506172211 55 230 8.0 15.0 0.01 1.00 0.09 78 1004.0
20260506172204 55 229 8.0 15.0 0.01 1.00 0.09 78 1004.0
20260506172105 55 225 9.0 15.0 0.01 1.00 0.09 78 1004.1
20260506171804 56 233 10.0 18.0 0.01 1.00 0.09 78 1003.9
20260506171712 56 230 10.0 19.0 0.00 1.00 0.08 77 1003.9
20260506171704 56 230 10.0 19.0 0.00 1.00 0.08 77 1003.9
20260506171604 56 232 10.0 19.0 0.00 1.00 0.08 76 1004.0
20260506171404 56 235 11.0 21.0 0.00 1.00 0.08 75 1003.9
20260506171304 57 234 12.0 21.0 0.00 1.00 0.08 75 1003.9
20260506171204 57 236 12.0 21.0 0.00 1.00 0.08 73 1003.9
20260506171105 57 236 12.0 26.0 0.00 1.00 0.08 73 1003.9
20260506171004 57 237 12.0 26.0 0.00 1.00 0.08 72 1004.0
20260506170904 58 234 12.0 26.0 0.00 1.00 0.08 72 1003.9
20260506170804 58 232 12.0 26.0 0.00 1.00 0.08 72 1003.9
20260506170705 58 232 11.0 26.0 0.00 1.00 0.08 71 1004.0
20260506170504 58 229 11.0 26.0 0.00 1.00 0.08 69 1004.0
20260506170404 58 228 11.0 26.0 0.00 1.00 0.08 68 1004.0
20260506170304 58 227 11.0 26.0 0.00 1.00 0.08 68 1003.9
20260506170204 58 227 10.0 26.0 0.00 1.00 0.08 68 1003.9
20260506170104 58 226 9.0 21.0 0.00 1.00 0.08 69 1004.0
20260506170005 58 225 9.0 18.0 0.00 1.00 0.08 69 1004.1
20260506165904 59 227 8.0 18.0 0.00 1.00 0.08 69 1004.1
20260506165804 59 228 8.0 18.0 0.00 1.00 0.08 69 1004.1
20260506165706 59 230 8.0 18.0 0.00 1.00 0.08 70 1004.0
20260506165604 59 231 8.0 18.0 0.00 1.00 0.08 70 1004.1
20260506165504 59 234 8.0 18.0 0.00 1.00 0.08 70 1003.9
20260506165404 59 237 7.0 16.0 0.00 1.00 0.08 70 1004.2
20260506165305 59 242 7.0 16.0 0.00 1.00 0.08 70 1004.2
20260506165204 59 244 7.0 16.0 0.00 1.00 0.08 69 1004.2
20260506165104 59 247 8.0 16.0 0.00 1.00 0.08 69 1004.1
20260506165011 59 251 8.0 16.0 0.00 1.00 0.08 69 1004.1
20260506165005 59 252 8.0 16.0 0.00 1.00 0.08 69 1004.1
20260506164904 60 253 8.0 16.0 0.00 1.00 0.08 69 1004.0
20260506164704 60 253 8.0 16.0 0.00 1.00 0.08 68 1004.0
20260506164604 60 254 7.0 15.0 0.00 1.00 0.08 67 1004.0
20260506164504 60 256 7.0 15.0 0.00 1.00 0.08 67 1004.0
20260506164404 61 255 7.0 15.0 0.00 1.00 0.08 67 1004.3
20260506164304 61 254 7.0 15.0 0.00 1.00 0.08 66 1004.0
20260506164204 61 250 6.0 15.0 0.00 1.00 0.08 66 1004.1
20260506164104 61 248 6.0 15.0 0.00 1.00 0.08 66 1003.9
20260506163911 62 243 4.0 14.0 0.00 1.00 0.08 67 1004.0
20260506163904 62 244 4.0 14.0 0.00 1.00 0.08 66 1004.0
20260506163805 62 244 4.0 13.0 0.00 1.00 0.08 66 1004.0
20260506163604 62 237 3.0 7.0 0.00 1.00 0.08 66 1003.7
20260506163504 62 239 3.0 10.0 0.00 1.00 0.08 66 1003.8
20260506163404 62 239 3.0 10.0 0.00 1.00 0.08 66 1003.8
20260506163305 62 235 3.0 10.0 0.00 1.00 0.08 66 1003.9
20260506163105 62 235 4.0 10.0 0.00 1.00 0.08 66 1003.8
20260506163004 62 233 4.0 11.0 0.00 1.00 0.08 65 1003.8
20260506162804 62 230 5.0 11.0 0.00 1.00 0.08 65 1003.9
20260506162704 62 230 5.0 11.0 0.00 1.00 0.08 65 1003.8
20260506162604 63 230 6.0 11.0 0.00 1.00 0.08 65 1003.8
20260506162504 63 227 6.0 11.0 0.00 1.00 0.08 65 1003.8
20260506162307 63 223 6.0 14.0 0.00 1.00 0.08 65 1003.7
20260506162204 63 222 6.0 14.0 0.00 1.00 0.08 65 1003.5
20260506162104 63 221 6.0 14.0 0.00 1.00 0.08 65 1003.9
20260506162011 63 220 6.0 15.0 0.00 1.00 0.08 65 1003.5
20260506162005 63 220 6.0 15.0 0.00 1.00 0.08 65 1003.5
20260506161904 63 217 6.0 15.0 0.00 1.00 0.08 65 1003.7
20260506161704 63 213 6.0 15.0 0.00 1.00 0.08 65 1003.7
20260506161604 63 210 5.0 15.0 0.00 1.00 0.08 65 1003.8
20260506161505 63 207 5.0 15.0 0.00 1.00 0.08 65 1003.6
20260506161404 63 205 5.0 15.0 0.00 1.00 0.08 65 1003.7
20260506161304 63 206 5.0 15.0 0.00 1.00 0.08 65 1003.8
20260506161104 64 203 5.0 15.0 0.00 1.00 0.08 65 1003.5
20260506161004 64 205 5.0 15.0 0.00 1.00 0.08 65 1003.7
20260506160911 64 207 5.0 11.0 0.00 1.00 0.08 66 1003.7
20260506160904 64 208 5.0 11.0 0.00 1.00 0.08 66 1003.7
20260506160804 64 209 5.0 11.0 0.00 1.00 0.08 66 1003.6
20260506160605 64 209 6.0 11.0 0.00 1.00 0.08 65 1003.5
20260506160511 64 212 6.0 11.0 0.00 1.00 0.08 65 1003.7
20260506160504 64 213 6.0 11.0 0.00 1.00 0.08 65 1003.7
20260506160404 64 215 6.0 11.0 0.00 1.00 0.08 66 1003.6
20260506160105 64 220 5.0 10.0 0.00 1.00 0.08 65 1003.6
20260506160006 64 217 5.0 10.0 0.00 1.00 0.08 65 1003.7
20260506155904 64 214 6.0 14.0 0.00 1.00 0.08 64 1003.7
20260506155704 64 216 6.0 17.0 0.00 1.00 0.08 65 1003.5
20260506155604 64 217 6.0 17.0 0.00 1.00 0.08 65 1003.7
20260506155504 64 216 6.0 17.0 0.00 1.00 0.08 65 1003.6
20260506155411 64 215 6.0 17.0 0.00 1.00 0.08 65 1003.5
20260506155306 64 215 6.0 17.0 0.00 1.00 0.08 64 1003.5
20260506155104 64 215 6.0 17.0 0.00 1.00 0.08 64 1003.5
20260506155004 64 216 6.0 17.0 0.00 1.00 0.08 64 1003.5
20260506154904 64 217 5.0 17.0 0.00 1.00 0.08 64 1003.5
20260506154804 64 220 5.0 15.0 0.00 1.00 0.08 65 1003.6
20260506154704 64 222 5.0 11.0 0.00 1.00 0.08 66 1003.7
20260506154604 64 223 4.0 11.0 0.00 1.00 0.08 66 1003.7
20260506154504 64 226 4.0 11.0 0.00 1.00 0.08 65 1003.7
20260506154204 63 238 5.0 11.0 0.00 1.00 0.08 67 1003.5
20260506154104 63 238 5.0 11.0 0.00 1.00 0.08 67 1003.6
20260506153904 63 239 5.0 11.0 0.00 1.00 0.08 67 1003.5
20260506153804 63 237 5.0 11.0 0.00 1.00 0.08 67 1003.5
20260506153704 63 238 5.0 10.0 0.00 1.00 0.08 67 1003.2
20260506153604 63 239 5.0 10.0 0.00 1.00 0.08 66 1003.5
20260506153404 63 238 5.0 10.0 0.00 1.00 0.08 66 1003.6
20260506153304 63 235 5.0 10.0 0.00 1.00 0.08 66 1003.5
20260506153204 63 231 5.0 11.0 0.00 1.00 0.08 66 1003.6
20260506153104 63 228 6.0 11.0 0.00 1.00 0.08 66 1003.7
20260506152904 63 227 6.0 13.0 0.00 1.00 0.08 66 1003.3
20260506152804 63 226 6.0 13.0 0.00 1.00 0.08 66 1003.5
20260506152711 64 222 6.0 17.0 0.00 1.00 0.08 66 1003.6
20260506152704 64 221 6.0 17.0 0.00 1.00 0.08 66 1003.6
20260506152611 64 216 6.0 17.0 0.00 1.00 0.08 66 1003.5
20260506152604 64 215 6.0 17.0 0.00 1.00 0.08 66 1003.5
20260506152311 64 208 7.0 17.0 0.00 1.00 0.08 66 1003.5
20260506152306 64 207 7.0 17.0 0.00 1.00 0.08 66 1003.5
20260506152204 64 205 7.0 17.0 0.00 1.00 0.08 65 1003.3
20260506152004 64 205 7.0 17.0 0.00 1.00 0.08 66 1003.5
20260506151904 64 204 7.0 17.0 0.00 1.00 0.08 66 1003.5
20260506151704 64 204 7.0 17.0 0.00 1.00 0.08 65 1003.5
20260506151612 64 206 7.0 16.0 0.00 1.00 0.08 65 1003.3
20260506151604 64 206 7.0 16.0 0.00 1.00 0.08 65 1003.3
20260506151504 64 206 7.0 16.0 0.00 1.00 0.08 65 1003.3
20260506151304 64 206 7.0 16.0 0.00 1.00 0.08 64 1003.5
20260506151204 64 207 7.0 16.0 0.00 1.00 0.08 64 1003.5
20260506151104 64 209 7.0 16.0 0.00 1.00 0.08 64 1003.6
20260506151006 65 204 7.0 16.0 0.00 1.00 0.08 64 1003.6
20260506150904 65 203 6.0 16.0 0.00 1.00 0.08 64 1003.5
20260506150804 65 206 7.0 17.0 0.00 1.00 0.08 63 1003.6
20260506150704 65 206 6.0 17.0 0.00 1.00 0.08 62 1003.1
20260506150604 65 209 6.0 17.0 0.00 1.00 0.08 62 1003.5
20260506150505 65 211 6.0 17.0 0.00 1.00 0.08 62 1003.5
20260506150404 65 212 7.0 17.0 0.00 1.00 0.08 61 1003.3
20260506150305 65 213 7.0 17.0 0.00 1.00 0.08 61 1003.2
20260506150204 65 217 7.0 17.0 0.00 1.00 0.08 59 1003.3
20260506150104 65 218 7.0 17.0 0.00 1.00 0.08 59 1003.3
20260506150005 66 219 7.0 17.0 0.00 1.00 0.08 59 1003.2
20260506145904 66 220 7.0 17.0 0.00 1.00 0.08 59 1003.5
20260506145804 66 220 6.0 15.0 0.00 1.00 0.08 60 1003.5
20260506145705 66 222 6.0 15.0 0.00 1.00 0.08 60 1003.6
20260506145604 66 217 6.0 15.0 0.00 1.00 0.08 59 1003.5
20260506145504 67 213 6.0 15.0 0.00 1.00 0.08 59 1003.3
20260506145404 67 211 6.0 15.0 0.00 1.00 0.08 59 1003.5
20260506145306 67 206 6.0 14.0 0.00 1.00 0.08 59 1003.3
20260506145204 67 198 5.0 14.0 0.00 1.00 0.08 60 1003.3
20260506145104 67 198 5.0 14.0 0.00 1.00 0.08 61 1003.5
20260506145004 67 199 4.0 14.0 0.00 1.00 0.08 62 1003.3
20260506144904 67 196 4.0 10.0 0.00 1.00 0.08 62 1003.6
20260506144804 66 198 4.0 10.0 0.00 1.00 0.08 62 1003.2
20260506144705 66 197 4.0 10.0 0.00 1.00 0.08 62 1003.2
20260506144604 66 201 3.0 10.0 0.00 1.00 0.08 62 1003.3
20260506144511 66 203 3.0 10.0 0.00 1.00 0.08 64 1003.3
20260506144504 66 202 4.0 10.0 0.00 1.00 0.08 64 1003.3
20260506144404 66 206 4.0 10.0 0.00 1.00 0.08 64 1003.6
20260506144205 65 207 3.0 10.0 0.00 1.00 0.08 60 1003.5
20260506144104 65 210 3.0 10.0 0.00 1.00 0.08 60 1003.5
20260506144004 65 212 4.0 10.0 0.00 1.00 0.08 61 1003.6
20260506143904 65 215 4.0 10.0 0.00 1.00 0.08 61 1003.3
20260506143812 65 224 3.0 10.0 0.00 1.00 0.08 63 1003.7
20260506143805 65 225 3.0 10.0 0.00 1.00 0.08 63 1003.7
20260506143704 65 232 3.0 8.0 0.00 1.00 0.08 62 1003.6
20260506143512 65 276 3.0 11.0 0.00 1.00 0.08 61 1003.3
20260506143504 65 278 3.0 11.0 0.00 1.00 0.08 61 1003.3
20260506143411 65 281 3.0 11.0 0.00 1.00 0.08 64 1003.6
20260506143404 65 281 3.0 11.0 0.00 1.00 0.08 64 1003.6
20260506143104 65 299 5.0 11.0 0.00 1.00 0.08 60 1003.5
20260506143011 65 307 5.0 11.0 0.00 1.00 0.08 60 1003.6
20260506143004 65 309 5.0 11.0 0.00 1.00 0.08 62 1003.6
20260506142911 65 315 5.0 11.0 0.00 1.00 0.08 62 1003.3
20260506142904 65 316 5.0 11.0 0.00 1.00 0.08 62 1003.3
20260506142604 66 336 6.0 11.0 0.00 1.00 0.08 63 1003.3
20260506142505 66 342 6.0 11.0 0.00 1.00 0.08 65 1003.2
20260506142411 66 346 5.0 11.0 0.00 1.00 0.08 64 1003.3
20260506142406 66 345 5.0 11.0 0.00 1.00 0.08 64 1003.3
20260506142306 66 351 5.0 11.0 0.00 1.00 0.08 64 1003.3
20260506142111 66 357 4.0 11.0 0.00 1.00 0.08 64 1003.3
20260506142104 66 358 4.0 11.0 0.00 1.00 0.08 64 1003.3
20260506142004 66 1 3.0 11.0 0.00 1.00 0.08 64 1003.5
20260506141804 66 9 2.0 10.0 0.00 1.00 0.08 62 1003.3
20260506141714 66 9 2.0 9.0 0.00 1.00 0.08 62 1003.3
20260506141705 66 4 2.0 9.0 0.00 1.00 0.08 64 1003.3
20260506141604 66 313 2.0 9.0 0.00 1.00 0.08 64 1003.6
20260506141406 66 229 2.0 6.0 0.00 1.00 0.08 59 1003.6
20260506141304 66 215 2.0 9.0 0.00 1.00 0.08 61 1003.7
20260506141204 66 210 2.0 9.0 0.00 1.00 0.08 59 1003.8
20260506141104 66 205 2.0 9.0 0.00 1.00 0.08 62 1003.6
20260506141004 66 203 2.0 9.0 0.00 1.00 0.08 60 1003.3
20260506140904 66 198 2.0 9.0 0.00 1.00 0.08 62 1003.5
20260506140806 66 194 2.0 9.0 0.00 1.00 0.08 62 1003.5
20260506140704 66 193 2.0 9.0 0.00 1.00 0.08 63 1003.6
20260506140604 65 181 2.0 9.0 0.00 1.00 0.08 63 1003.6
20260506140413 65 135 2.0 9.0 0.00 1.00 0.08 62 1003.8
20260506140406 65 126 2.0 9.0 0.00 1.00 0.08 62 1003.8
20260506140314 65 80 2.0 6.0 0.00 1.00 0.08 63 1003.7
20260506140305 65 75 2.0 6.0 0.00 1.00 0.08 63 1003.7
20260506140007 65 32 2.0 6.0 0.00 1.00 0.08 65 1003.5
20260506135906 65 14 2.0 7.0 0.00 1.00 0.08 64 1003.6
20260506135806 65 13 3.0 7.0 0.00 1.00 0.08 61 1003.7
20260506135711 65 13 3.0 7.0 0.00 1.00 0.08 61 1003.5
20260506135705 65 13 3.0 7.0 0.00 1.00 0.08 61 1003.5
20260506135604 65 9 3.0 7.0 0.00 1.00 0.08 64 1003.6
20260506135404 65 355 2.0 7.0 0.00 1.00 0.08 64 1003.8
20260506135306 65 346 1.0 7.0 0.00 1.00 0.08 62 1003.7
20260506135204 65 342 1.0 7.0 0.00 1.00 0.08 62 1003.5
20260506135104 65 340 1.0 7.0 0.00 1.00 0.08 62 1003.6
20260506135011 65 344 1.0 7.0 0.00 1.00 0.08 65 1003.9
20260506135004 65 348 1.0 7.0 0.00 1.00 0.08 65 1003.9
20260506134904 65 7 1.0 7.0 0.00 1.00 0.08 63 1003.7
20260506134713 65 0 0.0 0.0 0.00 1.00 0.08 61 1003.8
20260506134704 65 243 0.0 1.0 0.00 1.00 0.08 61 1003.8
20260506134604 65 246 0.0 6.0 0.00 1.00 0.08 61 1003.8
20260506134513 65 242 1.0 7.0 0.00 1.00 0.08 61 1003.7
20260506134406 65 242 1.0 7.0 0.00 1.00 0.08 61 1003.6
20260506134205 65 234 2.0 8.0 0.00 1.00 0.08 58 1003.8
20260506134106 65 234 2.0 8.0 0.00 1.00 0.08 59 1003.5
20260506133904 66 234 2.0 8.0 0.00 1.00 0.08 59 1003.7
20260506133804 66 232 2.0 8.0 0.00 1.00 0.08 57 1003.7
20260506133704 66 233 2.0 8.0 0.00 1.00 0.08 59 1003.6
20260506133604 66 235 2.0 8.0 0.00 1.00 0.08 61 1003.9
20260506133404 66 240 3.0 9.0 0.00 1.00 0.08 62 1003.8
20260506133306 66 241 3.0 9.0 0.00 1.00 0.08 64 1003.8
20260506133205 65 238 3.0 9.0 0.00 1.00 0.08 60 1003.7
20260506133104 66 236 3.0 9.0 0.00 1.00 0.08 60 1003.9
20260506133004 66 237 3.0 9.0 0.00 1.00 0.08 61 1003.7
20260506132904 66 238 3.0 9.0 0.00 1.00 0.08 62 1003.8
20260506132811 66 240 3.0 9.0 0.00 1.00 0.08 62 1003.6
20260506132704 66 243 3.0 9.0 0.00 1.00 0.08 61 1003.7
20260506132504 66 236 4.0 9.0 0.00 1.00 0.08 61 1003.6
20260506132404 66 235 3.0 9.0 0.00 1.00 0.08 62 1003.7
20260506132307 66 235 3.0 9.0 0.00 1.00 0.08 60 1003.8
20260506132204 66 238 3.0 9.0 0.00 1.00 0.08 61 1003.6
20260506132106 66 238 3.0 9.0 0.00 1.00 0.08 61 1003.7
20260506132005 66 232 4.0 13.0 0.00 1.00 0.08 59 1003.8
20260506131912 66 227 4.0 13.0 0.00 1.00 0.08 59 1003.9
20260506131904 66 226 4.0 13.0 0.00 1.00 0.08 59 1003.9
20260506131804 66 221 4.0 13.0 0.00 1.00 0.08 60 1003.9
20260506131606 67 209 6.0 18.0 0.00 1.00 0.08 60 1003.7
20260506131504 67 204 6.0 18.0 0.00 1.00 0.08 59 1003.9
20260506131404 67 204 6.0 18.0 0.00 1.00 0.08 60 1003.7
20260506131305 67 201 6.0 18.0 0.00 1.00 0.08 60 1003.9
20260506131206 67 197 6.0 18.0 0.00 1.00 0.08 58 1003.8
20260506131104 67 195 6.0 18.0 0.00 1.00 0.08 59 1003.9
20260506131004 67 198 6.0 18.0 0.00 1.00 0.08 60 1003.8
20260506130904 67 198 6.0 18.0 0.00 1.00 0.08 58 1003.9
20260506130804 67 198 6.0 18.0 0.00 1.00 0.08 58 1004.1
20260506130705 67 201 6.0 18.0 0.00 1.00 0.08 58 1003.9
20260506130604 67 202 5.0 13.0 0.00 1.00 0.08 60 1003.8
20260506130504 67 206 5.0 11.0 0.00 1.00 0.08 61 1003.9
20260506130404 67 206 5.0 11.0 0.00 1.00 0.08 60 1003.9
20260506130304 67 205 5.0 11.0 0.00 1.00 0.08 60 1003.7
20260506130204 67 207 5.0 11.0 0.00 1.00 0.08 58 1003.8
20260506130104 67 206 5.0 11.0 0.00 1.00 0.08 59 1003.9
20260506130006 67 206 6.0 14.0 0.00 1.00 0.08 58 1003.8
20260506125904 67 208 6.0 15.0 0.00 1.00 0.08 57 1003.8
20260506125804 67 209 6.0 15.0 0.00 1.00 0.08 58 1003.8
20260506125705 67 208 6.0 15.0 0.00 1.00 0.08 57 1003.9
20260506125604 67 206 7.0 16.0 0.00 1.00 0.08 57 1004.0
20260506125504 68 206 7.0 16.0 0.00 1.00 0.08 57 1003.9
20260506125405 68 201 7.0 16.0 0.00 1.00 0.08 57 1004.0
20260506125305 68 205 7.0 16.0 0.00 1.00 0.08 56 1003.9
20260506125204 68 207 8.0 16.0 0.00 1.00 0.08 57 1004.0
20260506125111 68 210 8.0 17.0 0.00 1.00 0.08 57 1004.0
20260506125104 68 211 9.0 17.0 0.00 1.00 0.08 57 1004.0
20260506125004 68 212 9.0 17.0 0.00 1.00 0.08 58 1003.8
20260506124804 67 213 8.0 17.0 0.00 1.00 0.08 57 1003.9
20260506124704 67 212 8.0 17.0 0.00 1.00 0.08 58 1004.0
20260506124604 67 216 8.0 17.0 0.00 1.00 0.08 58 1004.0
20260506124511 67 214 9.0 17.0 0.00 1.00 0.08 58 1004.0
20260506124504 67 215 9.0 17.0 0.00 1.00 0.08 58 1004.0
20260506124404 66 218 9.0 17.0 0.00 1.00 0.08 58 1004.0
20260506124204 66 222 8.0 17.0 0.00 1.00 0.08 59 1004.0
20260506124105 65 223 8.0 16.0 0.00 1.00 0.08 59 1003.8
20260506124004 65 225 7.0 16.0 0.00 1.00 0.08 60 1003.9
20260506123904 65 225 7.0 16.0 0.00 1.00 0.08 60 1003.9
20260506123804 65 224 8.0 16.0 0.00 1.00 0.08 60 1004.0
20260506123704 65 228 7.0 16.0 0.00 1.00 0.08 60 1003.9
20260506123504 65 232 7.0 16.0 0.00 1.00 0.08 60 1004.0
20260506123404 65 232 7.0 14.0 0.00 1.00 0.08 63 1003.9
20260506123304 65 233 7.0 14.0 0.00 1.00 0.08 63 1003.8
20260506123211 65 232 7.0 16.0 0.00 1.00 0.08 63 1003.8
20260506123204 65 231 7.0 16.0 0.00 1.00 0.08 63 1003.8
20260506123105 65 228 8.0 16.0 0.00 1.00 0.08 62 1004.1
20260506122904 66 224 8.0 16.0 0.00 1.00 0.08 62 1004.1
20260506122804 66 221 8.0 16.0 0.00 1.00 0.08 59 1003.8
20260506122711 66 221 8.0 16.0 0.00 1.00 0.08 62 1004.1
20260506122704 66 220 8.0 16.0 0.00 1.00 0.08 62 1004.1
20260506122604 66 221 8.0 16.0 0.00 1.00 0.08 63 1004.0
20260506122404 66 227 8.0 16.0 0.00 1.00 0.08 60 1004.0
20260506122306 67 226 8.0 16.0 0.00 1.00 0.08 61 1003.9
20260506122204 67 225 8.0 15.0 0.00 1.00 0.08 61 1004.0
20260506122104 67 229 7.0 14.0 0.00 1.00 0.08 60 1004.1
20260506122004 66 231 7.0 14.0 0.00 1.00 0.08 61 1004.0
20260506121904 66 233 6.0 14.0 0.00 1.00 0.08 61 1004.0
20260506121804 66 237 6.0 13.0 0.00 1.00 0.08 61 1003.9
20260506121704 66 238 5.0 11.0 0.00 1.00 0.08 63 1003.9
20260506121605 66 237 5.0 11.0 0.00 1.00 0.08 62 1003.8
20260506121504 66 235 6.0 14.0 0.00 1.00 0.08 60 1003.9
20260506121404 66 228 5.0 14.0 0.00 1.00 0.08 62 1003.9
20260506121304 66 229 5.0 14.0 0.00 1.00 0.08 63 1004.1
20260506121211 66 229 5.0 14.0 0.00 1.00 0.08 64 1004.1
20260506121204 66 229 5.0 14.0 0.00 1.00 0.08 64 1004.1
20260506121111 65 230 5.0 14.0 0.00 1.00 0.08 63 1004.0
20260506121105 65 231 5.0 14.0 0.00 1.00 0.08 63 1004.0
20260506120804 65 235 6.0 14.0 0.00 1.00 0.08 62 1004.0
20260506120704 65 235 6.0 14.0 0.00 1.00 0.08 62 1003.9
20260506120611 65 237 6.0 14.0 0.00 1.00 0.08 62 1003.9
20260506120605 65 238 6.0 14.0 0.00 1.00 0.08 64 1003.9
20260506120504 65 238 6.0 13.0 0.00 1.00 0.08 64 1003.9
20260506120304 65 235 6.0 13.0 0.00 1.00 0.08 62 1003.9
20260506120204 65 234 6.0 13.0 0.00 1.00 0.08 62 1003.8
20260506120105 66 231 6.0 13.0 0.00 1.00 0.08 61 1003.9
20260506120005 66 228 7.0 15.0 0.00 1.00 0.08 62 1003.8
20260506115904 66 232 7.0 15.0 0.00 1.00 0.08 61 1003.9
20260506115804 66 236 7.0 17.0 0.00 1.00 0.08 64 1003.9
20260506115704 65 237 7.0 17.0 0.00 1.00 0.08 63 1004.1
20260506115604 65 235 7.0 17.0 0.00 1.00 0.08 62 1004.0
20260506115504 65 233 8.0 17.0 0.00 1.00 0.08 61 1004.0
20260506115411 65 233 8.0 17.0 0.00 1.00 0.08 61 1004.0
20260506115404 65 234 8.0 17.0 0.00 1.00 0.08 61 1004.0
20260506115307 65 233 8.0 17.0 0.00 1.00 0.08 63 1004.0
20260506115111 65 235 8.0 17.0 0.00 1.00 0.08 61 1004.0
20260506115004 65 239 7.0 17.0 0.00 1.00 0.08 62 1003.9
20260506114804 65 229 6.0 14.0 0.00 1.00 0.08 61 1004.1
20260506114705 66 228 6.0 14.0 0.00 1.00 0.08 62 1003.9
20260506114505 66 229 5.0 14.0 0.00 1.00 0.08 61 1004.0
20260506114404 66 233 6.0 14.0 0.00 1.00 0.08 61 1004.0
20260506114304 66 238 6.0 13.0 0.00 1.00 0.08 64 1003.9
20260506114104 66 235 6.0 13.0 0.00 1.00 0.08 62 1003.7